Wetterdaten: Dienstag, 24.03.2020
Datum Zeit Temp. Aussen Temp. o. S. Temp +5cm Feuchte Auss Luftdruck Regen Sonnenschein Regendauer Solar Windben Empfang
24.03.2020 00:00 3,9 C 3,3 C 2,2 C 50 % 1032,3 hPa 0,0 l/m 0 min 0 min 0 W/m 0,0 km/h (0 Bft) 95,74 %
24.03.2020 00:02 3,9 C 3,3 C 2,2 C 50 % 1032,3 hPa 0,0 l/m 0 min 0 min 0 W/m 29,0 km/h (5 Bft) 100,00 %
24.03.2020 00:04 3,9 C 3,3 C 2,2 C 50 % 1032,2 hPa 0,0 l/m 0 min 0 min 0 W/m 6,4 km/h (2 Bft) 100,00 %
24.03.2020 00:08 3,9 C 3,3 C 2,2 C 50 % 1032,3 hPa 0,0 l/m 0 min 0 min 0 W/m 3,2 km/h (1 Bft) 93,62 %
24.03.2020 00:10 3,9 C 3,3 C 2,2 C 50 % 1032,2 hPa 0,0 l/m 0 min 0 min 0 W/m 3,2 km/h (1 Bft) 97,83 %
24.03.2020 00:12 3,9 C 3,3 C 2,2 C 50 % 1032,3 hPa 0,0 l/m 0 min 0 min 0 W/m 25,7 km/h (4 Bft) 97,87 %
24.03.2020 00:14 3,9 C 3,3 C 2,2 C 50 % 1032,2 hPa 0,0 l/m 0 min 0 min 0 W/m 6,4 km/h (2 Bft) 91,49 %
24.03.2020 00:16 3,9 C 3,3 C 2,2 C 50 % 1032,1 hPa 0,0 l/m 0 min 0 min 0 W/m 0,0 km/h (0 Bft) 95,74 %
24.03.2020 00:18 3,9 C 2,8 C 2,2 C 50 % 1032,2 hPa 0,0 l/m 0 min 0 min 0 W/m 12,9 km/h (3 Bft) 95,74 %
24.03.2020 00:20 3,8 C 2,8 C 2,2 C 50 % 1032,2 hPa 0,0 l/m 0 min 0 min 0 W/m 19,3 km/h (3 Bft) 89,36 %
24.03.2020 00:22 3,8 C 2,8 C 2,2 C 51 % 1032,1 hPa 0,0 l/m 0 min 0 min 0 W/m 0,0 km/h (0 Bft) 93,48 %
24.03.2020 00:24 3,8 C 2,8 C 2,2 C 51 % 1032,1 hPa 0,0 l/m 0 min 0 min 0 W/m 0,0 km/h (0 Bft) 91,49 %
24.03.2020 00:26 3,8 C 2,8 C 2,2 C 51 % 1032,1 hPa 0,0 l/m 0 min 0 min 0 W/m 12,9 km/h (3 Bft) 93,62 %
24.03.2020 00:28 3,8 C 2,8 C 2,2 C 51 % 1032,1 hPa 0,0 l/m 0 min 0 min 0 W/m 16,1 km/h (3 Bft) 91,49 %
24.03.2020 00:30 3,8 C 2,8 C 2,2 C 51 % 1032,0 hPa 0,0 l/m 0 min 0 min 0 W/m 6,4 km/h (2 Bft) 93,62 %
24.03.2020 00:32 3,7 C 2,8 C 2,2 C 51 % 1032,0 hPa 0,0 l/m 0 min 0 min 0 W/m 16,1 km/h (3 Bft) 91,30 %
24.03.2020 00:34 3,7 C 2,8 C 2,2 C 52 % 1032,0 hPa 0,0 l/m 0 min 0 min 0 W/m 0,0 km/h (0 Bft) 95,74 %
24.03.2020 00:36 3,7 C 2,8 C 2,2 C 52 % 1032,0 hPa 0,0 l/m 0 min 0 min 0 W/m 29,0 km/h (5 Bft) 87,23 %
24.03.2020 00:38 3,6 C 2,8 C 2,2 C 52 % 1032,0 hPa 0,0 l/m 0 min 0 min 0 W/m 25,7 km/h (4 Bft) 93,62 %
24.03.2020 00:40 3,6 C 2,8 C 2,2 C 52 % 1032,1 hPa 0,0 l/m 0 min 0 min 0 W/m 19,3 km/h (3 Bft) 95,74 %
24.03.2020 00:42 3,6 C 2,8 C 2,2 C 52 % 1032,1 hPa 0,0 l/m 0 min 0 min 0 W/m 0,0 km/h (0 Bft) 93,62 %
24.03.2020 00:44 3,6 C 2,8 C 2,2 C 52 % 1032,0 hPa 0,0 l/m 0 min 0 min 0 W/m 3,2 km/h (1 Bft) 93,48 %
24.03.2020 00:46 3,6 C 2,8 C 1,7 C 52 % 1032,1 hPa 0,0 l/m 0 min 0 min 0 W/m 0,0 km/h (0 Bft) 93,62 %
24.03.2020 00:48 3,5 C 2,8 C 1,7 C 52 % 1032,0 hPa 0,0 l/m 0 min 0 min 0 W/m 12,9 km/h (3 Bft) 50,00 %
24.03.2020 00:50 3,4 C 2,2 C 1,7 C 52 % 1032,0 hPa 0,0 l/m 0 min 0 min 0 W/m 0,0 km/h (0 Bft) 93,62 %
24.03.2020 00:52 3,4 C 2,2 C 1,7 C 53 % 1032,1 hPa 0,0 l/m 0 min 0 min 0 W/m 0,0 km/h (0 Bft) 91,49 %
24.03.2020 00:57 3,3 C 2,2 C 1,7 C 53 % 1032,0 hPa 0,0 l/m 0 min 0 min 0 W/m 0,0 km/h (0 Bft) 96,92 %
24.03.2020 00:58 3,3 C 2,2 C 1,7 C 53 % 1032,0 hPa 0,0 l/m 0 min 0 min 0 W/m 0,0 km/h (0 Bft) 95,65 %
24.03.2020 01:00 3,3 C 2,2 C 1,7 C 53 % 1032,0 hPa 0,0 l/m 0 min 0 min 0 W/m 16,1 km/h (3 Bft) 93,62 %
24.03.2020 01:02 3,3 C 2,2 C 1,7 C 53 % 1032,1 hPa 0,0 l/m 0 min 0 min 0 W/m 0,0 km/h (0 Bft) 93,62 %
24.03.2020 01:04 3,3 C 2,8 C 1,7 C 53 % 1032,2 hPa 0,0 l/m 0 min 0 min 0 W/m 3,2 km/h (1 Bft) 93,62 %
24.03.2020 01:06 3,3 C 2,8 C 1,7 C 53 % 1032,1 hPa 0,0 l/m 0 min 0 min 0 W/m 0,0 km/h (0 Bft) 93,62 %
24.03.2020 01:08 3,3 C 2,2 C 1,7 C 53 % 1032,2 hPa 0,0 l/m 0 min 0 min 0 W/m 3,2 km/h (1 Bft) 95,65 %
24.03.2020 01:10 3,2 C 2,2 C 1,7 C 53 % 1032,2 hPa 0,0 l/m 0 min 0 min 0 W/m 16,1 km/h (3 Bft) 95,74 %
24.03.2020 01:12 3,2 C 2,2 C 1,7 C 53 % 1032,2 hPa 0,0 l/m 0 min 0 min 0 W/m 0,0 km/h (0 Bft) 95,74 %
24.03.2020 01:14 3,2 C 2,2 C 1,7 C 53 % 1032,2 hPa 0,0 l/m 0 min 0 min 0 W/m 19,3 km/h (3 Bft) 95,74 %
24.03.2020 01:16 3,2 C 2,2 C 1,7 C 53 % 1032,2 hPa 0,0 l/m 0 min 0 min 0 W/m 6,4 km/h (2 Bft) 95,74 %
24.03.2020 01:18 3,2 C 2,2 C 1,7 C 53 % 1032,2 hPa 0,0 l/m 0 min 0 min 0 W/m 3,2 km/h (1 Bft) 97,87 %
24.03.2020 01:20 3,2 C 2,2 C 1,7 C 53 % 1032,2 hPa 0,0 l/m 0 min 0 min 0 W/m 0,0 km/h (0 Bft) 95,65 %
24.03.2020 01:22 3,2 C 2,2 C 1,7 C 53 % 1032,2 hPa 0,0 l/m 0 min 0 min 0 W/m 12,9 km/h (3 Bft) 97,87 %
24.03.2020 01:24 3,2 C 2,2 C 1,7 C 53 % 1032,2 hPa 0,0 l/m 0 min 0 min 0 W/m 0,0 km/h (0 Bft) 95,74 %
24.03.2020 01:26 3,2 C 2,2 C 1,7 C 53 % 1032,2 hPa 0,0 l/m 0 min 0 min 0 W/m 6,4 km/h (2 Bft) 97,87 %
24.03.2020 01:28 3,1 C 2,2 C 1,7 C 53 % 1032,1 hPa 0,0 l/m 0 min 0 min 0 W/m 0,0 km/h (0 Bft) 100,00 %
24.03.2020 01:30 3,1 C 2,2 C 1,7 C 53 % 1032,1 hPa 0,0 l/m 0 min 0 min 0 W/m 0,0 km/h (0 Bft) 100,00 %
24.03.2020 01:32 3,1 C 2,2 C 1,7 C 53 % 1032,1 hPa 0,0 l/m 0 min 0 min 0 W/m 16,1 km/h (3 Bft) 100,00 %
24.03.2020 01:34 3,1 C 2,2 C 1,7 C 53 % 1032,1 hPa 0,0 l/m 0 min 0 min 0 W/m 12,9 km/h (3 Bft) 100,00 %
24.03.2020 01:36 3,1 C 2,2 C 1,7 C 53 % 1032,1 hPa 0,0 l/m 0 min 0 min 0 W/m 6,4 km/h (2 Bft) 100,00 %
24.03.2020 01:38 3,1 C 2,2 C 1,7 C 54 % 1032,1 hPa 0,0 l/m 0 min 0 min 0 W/m 3,2 km/h (1 Bft) 100,00 %
24.03.2020 01:40 3,1 C 2,2 C 1,7 C 54 % 1032,1 hPa 0,0 l/m 0 min 0 min 0 W/m 6,4 km/h (2 Bft) 97,87 %
24.03.2020 01:42 3,0 C 2,2 C 1,7 C 54 % 1032,1 hPa 0,0 l/m 0 min 0 min 0 W/m 0,0 km/h (0 Bft) 100,00 %
24.03.2020 01:44 3,0 C 2,2 C 1,7 C 54 % 1032,1 hPa 0,0 l/m 0 min 0 min 0 W/m 0,0 km/h (0 Bft) 100,00 %
24.03.2020 01:46 2,9 C 2,2 C 1,7 C 54 % 1032,1 hPa 0,0 l/m 0 min 0 min 0 W/m 12,9 km/h (3 Bft) 97,22 %
24.03.2020 01:48 2,9 C 2,2 C 1,7 C 54 % 1032,1 hPa 0,0 l/m 0 min 0 min 0 W/m 6,4 km/h (2 Bft) 100,00 %
24.03.2020 01:50 2,9 C 2,2 C 1,7 C 54 % 1032,1 hPa 0,0 l/m 0 min 0 min 0 W/m 0,0 km/h (0 Bft) 100,00 %
24.03.2020 01:52 2,9 C 2,2 C 1,7 C 54 % 1032,1 hPa 0,0 l/m 0 min 0 min 0 W/m 6,4 km/h (2 Bft) 100,00 %
24.03.2020 01:54 2,9 C 2,2 C 1,7 C 54 % 1032,2 hPa 0,0 l/m 0 min 0 min 0 W/m 29,0 km/h (5 Bft) 100,00 %
24.03.2020 01:56 2,9 C 2,2 C 1,7 C 54 % 1032,1 hPa 0,0 l/m 0 min 0 min 0 W/m 19,3 km/h (3 Bft) 100,00 %
24.03.2020 01:58 2,9 C 2,2 C 1,7 C 54 % 1032,1 hPa 0,0 l/m 0 min 0 min 0 W/m 6,4 km/h (2 Bft) 100,00 %
24.03.2020 02:00 2,9 C 2,2 C 1,7 C 54 % 1032,1 hPa 0,0 l/m 0 min 0 min 0 W/m 0,0 km/h (0 Bft) 100,00 %
24.03.2020 02:02 2,8 C 2,2 C 1,7 C 53 % 1032,0 hPa 0,0 l/m 0 min 0 min 0 W/m 22,5 km/h (4 Bft) 100,00 %
24.03.2020 02:04 2,9 C 2,2 C 1,7 C 53 % 1032,0 hPa 0,0 l/m 0 min 0 min 0 W/m 16,1 km/h (3 Bft) 100,00 %
24.03.2020 02:06 2,9 C 2,2 C 1,7 C 53 % 1032,0 hPa 0,0 l/m 0 min 0 min 0 W/m 3,2 km/h (1 Bft) 100,00 %
24.03.2020 02:08 2,9 C 2,2 C 1,7 C 53 % 1031,9 hPa 0,0 l/m 0 min 0 min 0 W/m 6,4 km/h (2 Bft) 100,00 %
24.03.2020 02:10 2,9 C 2,2 C 1,7 C 53 % 1032,0 hPa 0,0 l/m 0 min 0 min 0 W/m 25,7 km/h (4 Bft) 100,00 %
24.03.2020 02:12 2,8 C 2,2 C 1,7 C 53 % 1032,0 hPa 0,0 l/m 0 min 0 min 0 W/m 25,7 km/h (4 Bft) 100,00 %
24.03.2020 02:14 2,9 C 2,2 C 1,7 C 53 % 1032,1 hPa 0,0 l/m 0 min 0 min 0 W/m 25,7 km/h (4 Bft) 100,00 %
24.03.2020 02:16 2,9 C 2,2 C 1,7 C 53 % 1032,1 hPa 0,0 l/m 0 min 0 min 0 W/m 19,3 km/h (3 Bft) 100,00 %
24.03.2020 02:18 2,9 C 2,2 C 1,7 C 53 % 1032,0 hPa 0,0 l/m 0 min 0 min 0 W/m 3,2 km/h (1 Bft) 100,00 %
24.03.2020 02:20 2,9 C 2,2 C 1,7 C 53 % 1032,0 hPa 0,0 l/m 0 min 0 min 0 W/m 3,2 km/h (1 Bft) 100,00 %
24.03.2020 02:22 2,9 C 2,2 C 1,7 C 53 % 1032,0 hPa 0,0 l/m 0 min 0 min 0 W/m 22,5 km/h (4 Bft) 100,00 %
24.03.2020 02:24 2,8 C 2,2 C 1,7 C 53 % 1032,0 hPa 0,0 l/m 0 min 0 min 0 W/m 19,3 km/h (3 Bft) 100,00 %
24.03.2020 02:26 2,8 C 2,2 C 1,7 C 53 % 1032,1 hPa 0,0 l/m 0 min 0 min 0 W/m 6,4 km/h (2 Bft) 100,00 %
24.03.2020 02:28 2,8 C 2,2 C 1,7 C 53 % 1032,2 hPa 0,0 l/m 0 min 0 min 0 W/m 6,4 km/h (2 Bft) 100,00 %
24.03.2020 02:30 2,8 C 2,2 C 1,7 C 53 % 1032,1 hPa 0,0 l/m 0 min 0 min 0 W/m 16,1 km/h (3 Bft) 100,00 %
24.03.2020 02:32 2,8 C 2,2 C 1,7 C 54 % 1032,1 hPa 0,0 l/m 0 min 0 min 0 W/m 0,0 km/h (0 Bft) 100,00 %
24.03.2020 02:34 2,8 C 2,2 C 1,1 C 54 % 1032,1 hPa 0,0 l/m 0 min 0 min 0 W/m 0,0 km/h (0 Bft) 100,00 %
24.03.2020 02:36 2,8 C 2,2 C 1,1 C 54 % 1032,1 hPa 0,0 l/m 0 min 0 min 0 W/m 0,0 km/h (0 Bft) 100,00 %
24.03.2020 02:38 2,8 C 2,2 C 1,1 C 54 % 1032,2 hPa 0,0 l/m 0 min 0 min 0 W/m 3,2 km/h (1 Bft) 100,00 %
24.03.2020 02:40 2,8 C 2,2 C 1,1 C 53 % 1032,2 hPa 0,0 l/m 0 min 0 min 0 W/m 16,1 km/h (3 Bft) 100,00 %
24.03.2020 02:42 2,8 C 2,2 C 1,7 C 53 % 1032,2 hPa 0,0 l/m 0 min 0 min 0 W/m 3,2 km/h (1 Bft) 100,00 %
24.03.2020 02:44 2,8 C 2,2 C 1,1 C 54 % 1032,2 hPa 0,0 l/m 0 min 0 min 0 W/m 3,2 km/h (1 Bft) 100,00 %
24.03.2020 02:46 2,8 C 2,2 C 1,1 C 54 % 1032,2 hPa 0,0 l/m 0 min 0 min 0 W/m 0,0 km/h (0 Bft) 100,00 %
24.03.2020 02:48 2,7 C 1,7 C 1,1 C 54 % 1032,2 hPa 0,0 l/m 0 min 0 min 0 W/m 0,0 km/h (0 Bft) 100,00 %
24.03.2020 02:50 2,7 C 1,7 C 1,1 C 54 % 1032,2 hPa 0,0 l/m 0 min 0 min 0 W/m 0,0 km/h (0 Bft) 100,00 %
24.03.2020 02:52 2,7 C 1,7 C 1,1 C 54 % 1032,2 hPa 0,0 l/m 0 min 0 min 0 W/m 0,0 km/h (0 Bft) 97,87 %
24.03.2020 02:54 2,7 C 1,7 C 1,1 C 54 % 1032,3 hPa 0,0 l/m 0 min 0 min 0 W/m 0,0 km/h (0 Bft) 95,74 %
24.03.2020 02:56 2,7 C 1,7 C 1,1 C 54 % 1032,3 hPa 0,0 l/m 0 min 0 min 0 W/m 19,3 km/h (3 Bft) 100,00 %
24.03.2020 02:58 2,6 C 1,7 C 1,1 C 54 % 1032,3 hPa 0,0 l/m 0 min 0 min 0 W/m 0,0 km/h (0 Bft) 97,83 %
24.03.2020 03:00 2,6 C 1,7 C 1,1 C 55 % 1032,3 hPa 0,0 l/m 0 min 0 min 0 W/m 6,4 km/h (2 Bft) 95,74 %
24.03.2020 03:02 2,6 C 1,7 C 1,1 C 54 % 1032,3 hPa 0,0 l/m 0 min 0 min 0 W/m 16,1 km/h (3 Bft) 97,87 %
24.03.2020 03:04 2,6 C 1,7 C 1,1 C 55 % 1032,3 hPa 0,0 l/m 0 min 0 min 0 W/m 0,0 km/h (0 Bft) 95,74 %
24.03.2020 03:06 2,6 C 1,7 C 1,1 C 55 % 1032,3 hPa 0,0 l/m 0 min 0 min 0 W/m 0,0 km/h (0 Bft) 95,74 %
24.03.2020 03:08 2,5 C 1,7 C 1,1 C 55 % 1032,3 hPa 0,0 l/m 0 min 0 min 0 W/m 0,0 km/h (0 Bft) 97,87 %
24.03.2020 03:10 2,5 C 1,7 C 1,1 C 55 % 1032,3 hPa 0,0 l/m 0 min 0 min 0 W/m 0,0 km/h (0 Bft) 97,83 %
24.03.2020 03:12 2,4 C 1,7 C 1,1 C 55 % 1032,3 hPa 0,0 l/m 0 min 0 min 0 W/m 0,0 km/h (0 Bft) 97,87 %
24.03.2020 03:14 2,4 C 1,7 C 1,1 C 56 % 1032,4 hPa 0,0 l/m 0 min 0 min 0 W/m 0,0 km/h (0 Bft) 95,74 %
24.03.2020 03:16 2,4 C 1,7 C 1,1 C 56 % 1032,4 hPa 0,0 l/m 0 min 0 min 0 W/m 16,1 km/h (3 Bft) 95,74 %
24.03.2020 03:18 2,3 C 1,7 C 1,1 C 56 % 1032,4 hPa 0,0 l/m 0 min 0 min 0 W/m 0,0 km/h (0 Bft) 93,62 %
24.03.2020 03:20 2,3 C 1,1 C 0,6 C 56 % 1032,4 hPa 0,0 l/m 0 min 0 min 0 W/m 0,0 km/h (0 Bft) 95,74 %
24.03.2020 03:22 2,3 C 1,1 C 0,6 C 56 % 1032,4 hPa 0,0 l/m 0 min 0 min 0 W/m 0,0 km/h (0 Bft) 91,30 %
24.03.2020 03:24 2,3 C 1,1 C 0,6 C 57 % 1032,4 hPa 0,0 l/m 0 min 0 min 0 W/m 0,0 km/h (0 Bft) 95,74 %
24.03.2020 03:26 2,2 C 1,1 C 0,6 C 57 % 1032,4 hPa 0,0 l/m 0 min 0 min 0 W/m 0,0 km/h (0 Bft) 95,74 %
24.03.2020 03:28 2,2 C 1,1 C 0,6 C 57 % 1032,4 hPa 0,0 l/m 0 min 0 min 0 W/m 6,4 km/h (2 Bft) 93,62 %
24.03.2020 03:30 2,1 C 1,1 C 0,6 C 57 % 1032,4 hPa 0,0 l/m 0 min 0 min 0 W/m 0,0 km/h (0 Bft) 93,62 %
24.03.2020 03:32 2,1 C 1,1 C 0,6 C 57 % 1032,4 hPa 0,0 l/m 0 min 0 min 0 W/m 0,0 km/h (0 Bft) 95,74 %
24.03.2020 03:34 2,1 C 1,1 C 0,6 C 57 % 1032,4 hPa 0,0 l/m 0 min 0 min 0 W/m 0,0 km/h (0 Bft) 89,13 %
24.03.2020 03:36 2,1 C 1,1 C 0,6 C 57 % 1032,3 hPa 0,0 l/m 0 min 0 min 0 W/m 0,0 km/h (0 Bft) 93,62 %
24.03.2020 03:38 2,1 C 1,1 C 0,6 C 57 % 1032,3 hPa 0,0 l/m 0 min 0 min 0 W/m 19,3 km/h (3 Bft) 95,74 %
24.03.2020 03:40 2,1 C 1,1 C 0,6 C 57 % 1032,3 hPa 0,0 l/m 0 min 0 min 0 W/m 0,0 km/h (0 Bft) 95,74 %
24.03.2020 03:42 2,0 C 1,1 C 0,6 C 57 % 1032,3 hPa 0,0 l/m 0 min 0 min 0 W/m 0,0 km/h (0 Bft) 95,74 %
24.03.2020 03:44 2,1 C 1,1 C 0,6 C 57 % 1032,5 hPa 0,0 l/m 0 min 0 min 0 W/m 0,0 km/h (0 Bft) 95,65 %
24.03.2020 03:46 2,1 C 1,1 C 0,6 C 57 % 1032,5 hPa 0,0 l/m 0 min 0 min 0 W/m 0,0 km/h (0 Bft) 93,62 %
24.03.2020 03:48 2,0 C 1,1 C 0,6 C 57 % 1032,5 hPa 0,0 l/m 0 min 0 min 0 W/m 0,0 km/h (0 Bft) 93,62 %
24.03.2020 03:50 2,0 C 1,1 C 0,6 C 57 % 1032,5 hPa 0,0 l/m 0 min 0 min 0 W/m 3,2 km/h (1 Bft) 95,74 %
24.03.2020 03:52 2,0 C 1,1 C 0,6 C 57 % 1032,5 hPa 0,0 l/m 0 min 0 min 0 W/m 0,0 km/h (0 Bft) 97,87 %
24.03.2020 03:54 2,0 C 1,1 C 0,6 C 58 % 1032,5 hPa 0,0 l/m 0 min 0 min 0 W/m 0,0 km/h (0 Bft) 97,87 %
24.03.2020 03:56 2,0 C 1,1 C 0,6 C 58 % 1032,5 hPa 0,0 l/m 0 min 0 min 0 W/m 0,0 km/h (0 Bft) 100,00 %
24.03.2020 03:58 1,9 C 1,1 C 0,6 C 58 % 1032,5 hPa 0,0 l/m 0 min 0 min 0 W/m 0,0 km/h (0 Bft) 100,00 %
24.03.2020 04:00 1,9 C 1,1 C 0,6 C 58 % 1032,5 hPa 0,0 l/m 0 min 0 min 0 W/m 0,0 km/h (0 Bft) 100,00 %
24.03.2020 04:02 1,9 C 1,1 C 0,6 C 58 % 1032,5 hPa 0,0 l/m 0 min 0 min 0 W/m 3,2 km/h (1 Bft) 97,30 %
24.03.2020 04:04 1,9 C 1,1 C 0,6 C 58 % 1032,5 hPa 0,0 l/m 0 min 0 min 0 W/m 0,0 km/h (0 Bft) 97,78 %
24.03.2020 04:06 1,9 C 1,1 C 0,6 C 58 % 1032,5 hPa 0,0 l/m 0 min 0 min 0 W/m 0,0 km/h (0 Bft) 97,87 %
24.03.2020 04:08 1,8 C 1,1 C 0,6 C 58 % 1032,5 hPa 0,0 l/m 0 min 0 min 0 W/m 0,0 km/h (0 Bft) 100,00 %
24.03.2020 04:10 1,8 C 1,1 C 0,6 C 58 % 1032,5 hPa 0,0 l/m 0 min 0 min 0 W/m 0,0 km/h (0 Bft) 97,92 %
24.03.2020 04:12 1,8 C 1,1 C 0,0 C 58 % 1032,5 hPa 0,0 l/m 0 min 0 min 0 W/m 0,0 km/h (0 Bft) 97,87 %
24.03.2020 04:14 1,8 C 1,1 C 0,0 C 58 % 1032,5 hPa 0,0 l/m 0 min 0 min 0 W/m 0,0 km/h (0 Bft) 95,65 %
24.03.2020 04:16 1,8 C 1,1 C 0,6 C 58 % 1032,5 hPa 0,0 l/m 0 min 0 min 0 W/m 0,0 km/h (0 Bft) 97,87 %
24.03.2020 04:18 1,8 C 1,1 C 0,0 C 58 % 1032,5 hPa 0,0 l/m 0 min 0 min 0 W/m 0,0 km/h (0 Bft) 97,87 %
24.03.2020 04:20 1,8 C 0,6 C 0,0 C 58 % 1032,5 hPa 0,0 l/m 0 min 0 min 0 W/m 0,0 km/h (0 Bft) 95,74 %
24.03.2020 04:22 1,7 C 0,6 C 0,0 C 58 % 1032,5 hPa 0,0 l/m 0 min 0 min 0 W/m 0,0 km/h (0 Bft) 100,00 %
24.03.2020 04:24 1,7 C 0,6 C 0,0 C 58 % 1032,4 hPa 0,0 l/m 0 min 0 min 0 W/m 0,0 km/h (0 Bft) 97,83 %
24.03.2020 04:26 1,7 C 0,6 C 0,0 C 58 % 1032,4 hPa 0,0 l/m 0 min 0 min 0 W/m 0,0 km/h (0 Bft) 97,87 %
24.03.2020 04:28 1,7 C 0,6 C 0,0 C 58 % 1032,4 hPa 0,0 l/m 0 min 0 min 0 W/m 0,0 km/h (0 Bft) 97,87 %
24.03.2020 04:30 1,7 C 0,6 C 0,0 C 58 % 1032,4 hPa 0,0 l/m 0 min 0 min 0 W/m 3,2 km/h (1 Bft) 95,74 %
24.03.2020 04:32 1,7 C 0,6 C 0,0 C 58 % 1032,4 hPa 0,0 l/m 0 min 0 min 0 W/m 0,0 km/h (0 Bft) 97,87 %
24.03.2020 04:34 1,7 C 1,1 C 0,6 C 58 % 1032,4 hPa 0,0 l/m 0 min 0 min 0 W/m 0,0 km/h (0 Bft) 97,87 %
24.03.2020 04:36 1,6 C 1,1 C 0,6 C 58 % 1032,4 hPa 0,0 l/m 0 min 0 min 0 W/m 0,0 km/h (0 Bft) 95,65 %
24.03.2020 04:38 1,7 C 1,1 C 0,6 C 58 % 1032,3 hPa 0,0 l/m 0 min 0 min 0 W/m 6,4 km/h (2 Bft) 97,92 %
24.03.2020 04:40 1,6 C 1,1 C 0,6 C 58 % 1032,3 hPa 0,0 l/m 0 min 0 min 0 W/m 0,0 km/h (0 Bft) 97,87 %
24.03.2020 04:42 1,6 C 1,1 C 0,6 C 58 % 1032,3 hPa 0,0 l/m 0 min 0 min 0 W/m 3,2 km/h (1 Bft) 97,83 %
24.03.2020 04:44 1,7 C 1,1 C 0,6 C 58 % 1032,3 hPa 0,0 l/m 0 min 0 min 0 W/m 0,0 km/h (0 Bft) 97,87 %
24.03.2020 04:46 1,6 C 1,1 C 0,6 C 58 % 1032,2 hPa 0,0 l/m 0 min 0 min 0 W/m 19,3 km/h (3 Bft) 97,87 %
24.03.2020 04:48 1,7 C 1,1 C 0,6 C 58 % 1032,1 hPa 0,0 l/m 0 min 0 min 0 W/m 3,2 km/h (1 Bft) 97,87 %
24.03.2020 04:50 1,7 C 1,1 C 0,6 C 58 % 1032,1 hPa 0,0 l/m 0 min 0 min 0 W/m 0,0 km/h (0 Bft) 97,87 %
24.03.2020 04:52 1,7 C 1,1 C 0,6 C 58 % 1032,1 hPa 0,0 l/m 0 min 0 min 0 W/m 0,0 km/h (0 Bft) 97,87 %
24.03.2020 04:54 1,7 C 1,1 C 0,6 C 58 % 1032,1 hPa 0,0 l/m 0 min 0 min 0 W/m 0,0 km/h (0 Bft) 97,83 %
24.03.2020 04:56 1,7 C 1,1 C 0,6 C 58 % 1032,1 hPa 0,0 l/m 0 min 0 min 0 W/m 0,0 km/h (0 Bft) 93,62 %
24.03.2020 04:58 1,7 C 1,1 C 0,6 C 58 % 1032,1 hPa 0,0 l/m 0 min 0 min 0 W/m 12,9 km/h (3 Bft) 97,87 %
24.03.2020 05:00 1,7 C 1,1 C 0,6 C 58 % 1032,2 hPa 0,0 l/m 0 min 0 min 0 W/m 16,1 km/h (3 Bft) 95,74 %
24.03.2020 05:02 1,7 C 1,1 C 0,6 C 58 % 1032,2 hPa 0,0 l/m 0 min 0 min 0 W/m 0,0 km/h (0 Bft) 56,82 %
24.03.2020 05:04 1,7 C 1,1 C 0,6 C 58 % 1032,2 hPa 0,0 l/m 0 min 0 min 0 W/m 12,9 km/h (3 Bft) 97,87 %
24.03.2020 05:06 1,7 C 1,1 C 0,0 C 58 % 1032,3 hPa 0,0 l/m 0 min 0 min 0 W/m 12,9 km/h (3 Bft) 95,65 %
24.03.2020 05:08 1,6 C 1,1 C 0,0 C 58 % 1032,2 hPa 0,0 l/m 0 min 0 min 0 W/m 3,2 km/h (1 Bft) 95,74 %
24.03.2020 05:10 1,6 C 1,1 C 0,6 C 58 % 1032,2 hPa 0,0 l/m 0 min 0 min 0 W/m 3,2 km/h (1 Bft) 97,87 %
24.03.2020 05:12 1,6 C 1,1 C 0,6 C 58 % 1032,1 hPa 0,0 l/m 0 min 0 min 0 W/m 22,5 km/h (4 Bft) 97,87 %
24.03.2020 05:14 1,6 C 1,1 C 0,6 C 58 % 1032,0 hPa 0,0 l/m 0 min 0 min 0 W/m 0,0 km/h (0 Bft) 95,74 %
24.03.2020 05:16 1,6 C 1,1 C 0,0 C 58 % 1032,0 hPa 0,0 l/m 0 min 0 min 0 W/m 12,9 km/h (3 Bft) 95,65 %
24.03.2020 05:18 1,6 C 1,1 C 0,0 C 59 % 1032,0 hPa 0,0 l/m 0 min 0 min 0 W/m 0,0 km/h (0 Bft) 100,00 %
24.03.2020 05:20 1,6 C 0,6 C 0,0 C 58 % 1032,0 hPa 0,0 l/m 0 min 0 min 0 W/m 19,3 km/h (3 Bft) 97,87 %
24.03.2020 05:22 1,6 C 1,1 C 0,6 C 58 % 1031,9 hPa 0,0 l/m 0 min 0 min 0 W/m 19,3 km/h (3 Bft) 100,00 %
24.03.2020 05:24 1,6 C 0,6 C 0,0 C 58 % 1032,0 hPa 0,0 l/m 0 min 0 min 0 W/m 0,0 km/h (0 Bft) 100,00 %
24.03.2020 05:26 1,6 C 0,6 C 0,0 C 59 % 1032,1 hPa 0,0 l/m 0 min 0 min 0 W/m 0,0 km/h (0 Bft) 100,00 %
24.03.2020 05:28 1,6 C 0,6 C 0,0 C 59 % 1032,1 hPa 0,0 l/m 0 min 0 min 0 W/m 3,2 km/h (1 Bft) 100,00 %
24.03.2020 05:30 1,6 C 0,6 C 0,0 C 59 % 1032,1 hPa 0,0 l/m 0 min 0 min 0 W/m 12,9 km/h (3 Bft) 100,00 %
24.03.2020 05:32 1,6 C 0,6 C 0,0 C 59 % 1032,1 hPa 0,0 l/m 0 min 0 min 0 W/m 0,0 km/h (0 Bft) 97,87 %
24.03.2020 05:34 1,6 C 0,6 C 0,0 C 59 % 1032,1 hPa 0,0 l/m 0 min 0 min 0 W/m 6,4 km/h (2 Bft) 97,87 %
24.03.2020 05:36 1,6 C 0,6 C 0,0 C 59 % 1032,1 hPa 0,0 l/m 0 min 0 min 0 W/m 12,9 km/h (3 Bft) 97,87 %
24.03.2020 05:38 1,5 C 0,6 C 0,0 C 59 % 1032,1 hPa 0,0 l/m 0 min 0 min 0 W/m 22,5 km/h (4 Bft) 100,00 %
24.03.2020 05:40 1,5 C 0,6 C 0,0 C 59 % 1032,1 hPa 0,0 l/m 0 min 0 min 0 W/m 0,0 km/h (0 Bft) 97,83 %
24.03.2020 05:42 1,5 C 0,6 C 0,0 C 59 % 1032,2 hPa 0,0 l/m 0 min 0 min 0 W/m 0,0 km/h (0 Bft) 97,87 %
24.03.2020 05:44 1,5 C 0,6 C 0,0 C 59 % 1032,2 hPa 0,0 l/m 0 min 0 min 0 W/m 0,0 km/h (0 Bft) 97,87 %
24.03.2020 05:46 1,5 C 0,6 C 0,0 C 59 % 1032,2 hPa 0,0 l/m 0 min 0 min 0 W/m 0,0 km/h (0 Bft) 95,74 %
24.03.2020 05:48 1,4 C 0,6 C 0,0 C 59 % 1032,2 hPa 0,0 l/m 0 min 0 min 0 W/m 6,4 km/h (2 Bft) 65,96 %
24.03.2020 05:50 1,4 C 0,6 C 0,0 C 59 % 1032,2 hPa 0,0 l/m 0 min 0 min 0 W/m 3,2 km/h (1 Bft) 80,56 %
24.03.2020 05:52 1,4 C 0,6 C 0,0 C 59 % 1032,3 hPa 0,0 l/m 0 min 0 min 0 W/m 0,0 km/h (0 Bft) 100,00 %
24.03.2020 05:54 1,4 C 0,6 C 0,0 C 59 % 1032,3 hPa 0,0 l/m 0 min 0 min 0 W/m 6,4 km/h (2 Bft) 97,87 %
24.03.2020 05:56 1,4 C 0,6 C 0,0 C 59 % 1032,3 hPa 0,0 l/m 0 min 0 min 0 W/m 3,2 km/h (1 Bft) 95,74 %
24.03.2020 05:58 1,4 C 0,6 C 0,0 C 59 % 1032,3 hPa 0,0 l/m 0 min 0 min 0 W/m 3,2 km/h (1 Bft) 95,74 %
24.03.2020 06:00 1,4 C 0,6 C 0,0 C 59 % 1032,3 hPa 0,0 l/m 0 min 0 min 0 W/m 0,0 km/h (0 Bft) 95,74 %
24.03.2020 06:02 1,4 C 0,6 C 0,0 C 59 % 1032,3 hPa 0,0 l/m 0 min 0 min 0 W/m 0,0 km/h (0 Bft) 95,74 %
24.03.2020 06:04 1,3 C 0,6 C 0,0 C 59 % 1032,3 hPa 0,0 l/m 0 min 0 min 0 W/m 0,0 km/h (0 Bft) 93,48 %
24.03.2020 06:08 1,3 C 0,6 C 0,0 C 60 % 1032,4 hPa 0,0 l/m 0 min 0 min 0 W/m 16,1 km/h (3 Bft) 95,74 %
24.03.2020 06:10 1,3 C 0,6 C 0,0 C 60 % 1032,4 hPa 0,0 l/m 0 min 0 min 0 W/m 6,4 km/h (2 Bft) 95,74 %
24.03.2020 06:12 1,3 C 0,6 C 0,0 C 59 % 1032,4 hPa 0,0 l/m 0 min 0 min 0 W/m 3,2 km/h (1 Bft) 93,62 %
24.03.2020 06:14 1,3 C 0,6 C 0,0 C 59 % 1032,4 hPa 0,0 l/m 0 min 0 min 0 W/m 0,0 km/h (0 Bft) 95,74 %
24.03.2020 06:16 1,3 C 0,6 C 0,0 C 59 % 1032,4 hPa 0,0 l/m 0 min 0 min 0 W/m 12,9 km/h (3 Bft) 95,65 %
24.03.2020 06:18 1,2 C 0,6 C 0,0 C 59 % 1032,4 hPa 0,0 l/m 0 min 0 min 0 W/m 19,3 km/h (3 Bft) 95,74 %
24.03.2020 06:20 1,2 C 0,6 C 0,0 C 59 % 1032,4 hPa 0,0 l/m 0 min 0 min 0 W/m 16,1 km/h (3 Bft) 97,87 %
24.03.2020 06:22 1,2 C 0,6 C 0,0 C 59 % 1032,4 hPa 0,0 l/m 0 min 0 min 0 W/m 0,0 km/h (0 Bft) 93,62 %
24.03.2020 06:24 1,2 C 0,6 C 0,0 C 59 % 1032,4 hPa 0,0 l/m 0 min 0 min 0 W/m 0,0 km/h (0 Bft) 95,74 %
24.03.2020 06:26 1,2 C 0,6 C 0,0 C 59 % 1032,4 hPa 0,0 l/m 0 min 0 min 0 W/m 0,0 km/h (0 Bft) 95,65 %
24.03.2020 06:28 1,2 C 0,6 C 0,0 C 59 % 1032,4 hPa 0,0 l/m 0 min 0 min 0 W/m 6,4 km/h (2 Bft) 95,74 %
24.03.2020 06:30 1,2 C 0,6 C 0,0 C 59 % 1032,3 hPa 0,0 l/m 0 min 0 min 5 W/m 3,2 km/h (1 Bft) 97,87 %
24.03.2020 06:32 1,2 C 0,6 C 0,0 C 59 % 1032,3 hPa 0,0 l/m 0 min 0 min 5 W/m 0,0 km/h (0 Bft) 100,00 %
24.03.2020 06:34 1,2 C 0,6 C 0,0 C 59 % 1032,3 hPa 0,0 l/m 0 min 0 min 7 W/m 0,0 km/h (0 Bft) 100,00 %
24.03.2020 06:36 1,2 C 0,6 C 0,0 C 59 % 1032,4 hPa 0,0 l/m 0 min 0 min 7 W/m 0,0 km/h (0 Bft) 97,87 %
24.03.2020 06:38 1,2 C 0,6 C 0,0 C 59 % 1032,4 hPa 0,0 l/m 0 min 0 min 8 W/m 0,0 km/h (0 Bft) 97,83 %
24.03.2020 06:40 1,2 C 0,6 C 0,0 C 59 % 1032,4 hPa 0,0 l/m 0 min 0 min 9 W/m 0,0 km/h (0 Bft) 95,74 %
24.03.2020 06:42 1,2 C 0,6 C 0,0 C 60 % 1032,4 hPa 0,0 l/m 0 min 0 min 9 W/m 0,0 km/h (0 Bft) 95,74 %
24.03.2020 06:44 1,2 C 0,6 C 0,0 C 60 % 1032,4 hPa 0,0 l/m 0 min 0 min 10 W/m 0,0 km/h (0 Bft) 97,87 %
24.03.2020 06:46 1,2 C 0,6 C 0,0 C 59 % 1032,4 hPa 0,0 l/m 0 min 0 min 11 W/m 22,5 km/h (4 Bft) 95,74 %
24.03.2020 06:48 1,2 C 0,6 C 0,0 C 59 % 1032,4 hPa 0,0 l/m 0 min 0 min 12 W/m 12,9 km/h (3 Bft) 100,00 %
24.03.2020 06:50 1,2 C 0,6 C 0,0 C 59 % 1032,4 hPa 0,0 l/m 0 min 0 min 12 W/m 0,0 km/h (0 Bft) 97,83 %
24.03.2020 06:52 1,2 C 0,6 C 0,0 C 60 % 1032,4 hPa 0,0 l/m 0 min 0 min 13 W/m 0,0 km/h (0 Bft) 100,00 %
24.03.2020 06:54 1,2 C 0,6 C 0,0 C 59 % 1032,4 hPa 0,0 l/m 0 min 0 min 14 W/m 3,2 km/h (1 Bft) 100,00 %
24.03.2020 06:56 1,2 C 0,6 C 0,0 C 59 % 1032,5 hPa 0,0 l/m 0 min 0 min 16 W/m 6,4 km/h (2 Bft) 97,87 %
24.03.2020 06:58 1,2 C 0,6 C 0,0 C 59 % 1032,5 hPa 0,0 l/m 0 min 0 min 16 W/m 12,9 km/h (3 Bft) 100,00 %
24.03.2020 07:00 1,2 C 0,6 C 0,0 C 59 % 1032,5 hPa 0,0 l/m 0 min 0 min 17 W/m 12,9 km/h (3 Bft) 100,00 %
24.03.2020 07:02 1,2 C 0,6 C 0,0 C 59 % 1032,5 hPa 0,0 l/m 0 min 0 min 18 W/m 0,0 km/h (0 Bft) 100,00 %
24.03.2020 07:04 1,2 C 0,6 C 0,0 C 59 % 1032,6 hPa 0,0 l/m 0 min 0 min 18 W/m 6,4 km/h (2 Bft) 100,00 %
24.03.2020 07:06 1,2 C 0,6 C 0,0 C 59 % 1032,6 hPa 0,0 l/m 0 min 0 min 19 W/m 12,9 km/h (3 Bft) 100,00 %
24.03.2020 07:08 1,2 C 1,1 C 0,0 C 59 % 1032,5 hPa 0,0 l/m 0 min 0 min 21 W/m 6,4 km/h (2 Bft) 100,00 %
24.03.2020 07:10 1,3 C 1,1 C 0,0 C 59 % 1032,5 hPa 0,0 l/m 0 min 0 min 21 W/m 3,2 km/h (1 Bft) 100,00 %
24.03.2020 07:12 1,3 C 1,1 C 0,0 C 59 % 1032,5 hPa 0,0 l/m 0 min 0 min 22 W/m 12,9 km/h (3 Bft) 100,00 %
24.03.2020 07:14 1,3 C 1,1 C 0,6 C 59 % 1032,6 hPa 0,0 l/m 0 min 0 min 23 W/m 12,9 km/h (3 Bft) 100,00 %
24.03.2020 07:16 1,3 C 1,1 C 0,6 C 58 % 1032,6 hPa 0,0 l/m 0 min 0 min 23 W/m 3,2 km/h (1 Bft) 100,00 %
24.03.2020 07:18 1,4 C 1,1 C 0,6 C 59 % 1032,6 hPa 0,0 l/m 0 min 0 min 24 W/m 12,9 km/h (3 Bft) 100,00 %
24.03.2020 07:20 1,4 C 1,1 C 0,6 C 58 % 1032,6 hPa 0,0 l/m 0 min 0 min 25 W/m 22,5 km/h (4 Bft) 100,00 %
24.03.2020 07:22 1,4 C 1,1 C 0,6 C 58 % 1032,6 hPa 0,0 l/m 0 min 0 min 25 W/m 19,3 km/h (3 Bft) 100,00 %
24.03.2020 07:24 1,5 C 1,1 C 0,6 C 58 % 1032,7 hPa 0,0 l/m 0 min 0 min 25 W/m 3,2 km/h (1 Bft) 100,00 %
24.03.2020 07:26 1,5 C 1,1 C 0,6 C 58 % 1032,7 hPa 0,0 l/m 0 min 0 min 26 W/m 22,5 km/h (4 Bft) 100,00 %
24.03.2020 07:28 1,6 C 1,1 C 0,6 C 58 % 1032,8 hPa 0,0 l/m 0 min 0 min 26 W/m 16,1 km/h (3 Bft) 100,00 %
24.03.2020 07:30 1,6 C 1,1 C 0,6 C 58 % 1032,8 hPa 0,0 l/m 0 min 0 min 27 W/m 6,4 km/h (2 Bft) 100,00 %
24.03.2020 07:32 1,6 C 1,7 C 0,6 C 58 % 1032,9 hPa 0,0 l/m 0 min 0 min 28 W/m 3,2 km/h (1 Bft) 97,87 %
24.03.2020 07:34 1,6 C 1,1 C 0,6 C 58 % 1033,0 hPa 0,0 l/m 0 min 0 min 28 W/m 0,0 km/h (0 Bft) 97,87 %
24.03.2020 07:36 1,7 C 1,7 C 0,6 C 58 % 1033,0 hPa 0,0 l/m 0 min 0 min 29 W/m 0,0 km/h (0 Bft) 97,83 %
24.03.2020 07:38 1,7 C 1,7 C 0,6 C 58 % 1033,0 hPa 0,0 l/m 0 min 0 min 30 W/m 0,0 km/h (0 Bft) 97,87 %
24.03.2020 07:40 1,7 C 1,7 C 0,6 C 58 % 1033,1 hPa 0,0 l/m 0 min 0 min 30 W/m 6,4 km/h (2 Bft) 100,00 %
24.03.2020 07:42 1,8 C 1,7 C 1,1 C 58 % 1033,1 hPa 0,0 l/m 0 min 0 min 32 W/m 16,1 km/h (3 Bft) 97,87 %
24.03.2020 07:44 1,8 C 1,7 C 1,1 C 57 % 1033,1 hPa 0,0 l/m 0 min 0 min 32 W/m 3,2 km/h (1 Bft) 100,00 %
24.03.2020 07:46 1,8 C 1,7 C 1,1 C 57 % 1033,1 hPa 0,0 l/m 0 min 0 min 32 W/m 19,3 km/h (3 Bft) 100,00 %
24.03.2020 07:48 1,9 C 1,7 C 1,1 C 57 % 1033,1 hPa 0,0 l/m 0 min 0 min 33 W/m 16,1 km/h (3 Bft) 97,83 %
24.03.2020 07:50 1,9 C 1,7 C 1,1 C 57 % 1033,1 hPa 0,0 l/m 0 min 0 min 33 W/m 6,4 km/h (2 Bft) 100,00 %
24.03.2020 07:52 2,0 C 1,7 C 1,1 C 57 % 1033,1 hPa 0,0 l/m 0 min 0 min 33 W/m 22,5 km/h (4 Bft) 97,87 %
24.03.2020 07:54 2,0 C 1,7 C 1,1 C 56 % 1033,1 hPa 0,0 l/m 0 min 0 min 34 W/m 3,2 km/h (1 Bft) 100,00 %
24.03.2020 07:56 2,1 C 2,2 C 1,1 C 57 % 1033,0 hPa 0,0 l/m 0 min 0 min 35 W/m 16,1 km/h (3 Bft) 97,87 %
24.03.2020 07:58 2,1 C 2,2 C 1,1 C 57 % 1033,0 hPa 0,0 l/m 0 min 0 min 35 W/m 19,3 km/h (3 Bft) 100,00 %
24.03.2020 08:00 2,2 C 2,2 C 1,1 C 56 % 1033,1 hPa 0,0 l/m 0 min 0 min 36 W/m 19,3 km/h (3 Bft) 100,00 %
24.03.2020 08:02 2,2 C 2,2 C 1,1 C 57 % 1033,1 hPa 0,0 l/m 0 min 0 min 37 W/m 6,4 km/h (2 Bft) 97,87 %
24.03.2020 08:04 2,2 C 2,2 C 1,1 C 56 % 1033,0 hPa 0,0 l/m 0 min 0 min 37 W/m 22,5 km/h (4 Bft) 100,00 %
24.03.2020 08:06 2,3 C 2,2 C 1,7 C 56 % 1033,0 hPa 0,0 l/m 0 min 0 min 38 W/m 6,4 km/h (2 Bft) 97,87 %
24.03.2020 08:08 2,3 C 2,2 C 1,7 C 56 % 1033,0 hPa 0,0 l/m 0 min 0 min 39 W/m 0,0 km/h (0 Bft) 95,74 %
24.03.2020 08:10 2,4 C 2,2 C 1,7 C 56 % 1033,0 hPa 0,0 l/m 0 min 0 min 39 W/m 0,0 km/h (0 Bft) 95,65 %
24.03.2020 08:12 2,4 C 2,2 C 1,7 C 56 % 1033,1 hPa 0,0 l/m 0 min 0 min 39 W/m 0,0 km/h (0 Bft) 97,87 %
24.03.2020 08:14 2,5 C 2,2 C 1,7 C 55 % 1033,0 hPa 0,0 l/m 0 min 0 min 39 W/m 29,0 km/h (5 Bft) 97,87 %
24.03.2020 08:16 2,6 C 2,2 C 1,7 C 55 % 1033,0 hPa 0,0 l/m 0 min 0 min 40 W/m 29,0 km/h (5 Bft) 95,74 %
24.03.2020 08:18 2,6 C 2,8 C 1,7 C 55 % 1033,0 hPa 0,0 l/m 0 min 0 min 40 W/m 22,5 km/h (4 Bft) 93,62 %
24.03.2020 08:20 2,6 C 2,8 C 1,7 C 55 % 1032,9 hPa 0,0 l/m 0 min 0 min 40 W/m 19,3 km/h (3 Bft) 93,62 %
24.03.2020 08:22 2,7 C 2,8 C 1,7 C 55 % 1032,9 hPa 0,0 l/m 0 min 0 min 41 W/m 19,3 km/h (3 Bft) 95,65 %
24.03.2020 08:24 2,7 C 2,8 C 1,7 C 55 % 1033,0 hPa 0,0 l/m 0 min 0 min 42 W/m 22,5 km/h (4 Bft) 97,87 %
24.03.2020 08:29 2,8 C 2,8 C 1,7 C 54 % 1033,1 hPa 0,0 l/m 0 min 0 min 42 W/m 35,4 km/h (5 Bft) 95,95 %
24.03.2020 08:30 2,8 C 2,8 C 1,7 C 54 % 1033,1 hPa 0,0 l/m 0 min 0 min 44 W/m 12,9 km/h (3 Bft) 95,83 %
24.03.2020 08:32 2,9 C 2,8 C 1,7 C 54 % 1033,2 hPa 0,0 l/m 0 min 0 min 44 W/m 35,4 km/h (5 Bft) 95,74 %
24.03.2020 08:34 3,0 C 2,8 C 1,7 C 53 % 1033,1 hPa 0,0 l/m 0 min 0 min 44 W/m 35,4 km/h (5 Bft) 100,00 %
24.03.2020 08:36 3,1 C 2,8 C 1,7 C 53 % 1033,2 hPa 0,0 l/m 0 min 0 min 47 W/m 32,2 km/h (5 Bft) 93,62 %
24.03.2020 08:38 3,1 C 2,8 C 1,7 C 53 % 1033,2 hPa 0,0 l/m 0 min 0 min 71 W/m 22,5 km/h (4 Bft) 100,00 %
24.03.2020 08:40 3,1 C 3,3 C 2,2 C 53 % 1033,1 hPa 0,0 l/m 2 min 0 min 320 W/m 22,5 km/h (4 Bft) 97,87 %
24.03.2020 08:42 3,2 C 4,4 C 2,2 C 52 % 1033,1 hPa 0,0 l/m 2 min 0 min 332 W/m 22,5 km/h (4 Bft) 93,62 %
24.03.2020 08:44 3,3 C 6,1 C 2,2 C 53 % 1033,1 hPa 0,0 l/m 2 min 0 min 339 W/m 6,4 km/h (2 Bft) 97,87 %
24.03.2020 08:46 3,3 C 6,7 C 2,2 C 53 % 1033,1 hPa 0,0 l/m 2 min 0 min 345 W/m 22,5 km/h (4 Bft) 91,30 %
24.03.2020 08:48 3,4 C 7,2 C 2,2 C 53 % 1033,1 hPa 0,0 l/m 2 min 0 min 350 W/m 12,9 km/h (3 Bft) 91,49 %
24.03.2020 08:50 3,6 C 6,7 C 2,8 C 52 % 1033,1 hPa 0,0 l/m 2 min 0 min 356 W/m 29,0 km/h (5 Bft) 91,49 %
24.03.2020 08:52 3,7 C 6,7 C 2,8 C 51 % 1033,1 hPa 0,0 l/m 2 min 0 min 362 W/m 25,7 km/h (4 Bft) 93,62 %
24.03.2020 08:54 3,8 C 6,7 C 2,8 C 51 % 1033,1 hPa 0,0 l/m 2 min 0 min 368 W/m 25,7 km/h (4 Bft) 93,62 %
24.03.2020 08:56 3,9 C 6,7 C 2,8 C 51 % 1033,2 hPa 0,0 l/m 2 min 0 min 375 W/m 22,5 km/h (4 Bft) 93,48 %
24.03.2020 08:58 4,1 C 6,7 C 2,8 C 50 % 1033,1 hPa 0,0 l/m 2 min 0 min 380 W/m 48,3 km/h (6 Bft) 93,62 %
24.03.2020 09:00 4,1 C 7,2 C 2,8 C 50 % 1033,2 hPa 0,0 l/m 2 min 0 min 387 W/m 25,7 km/h (4 Bft) 94,29 %
24.03.2020 09:02 4,2 C 7,2 C 3,3 C 50 % 1033,2 hPa 0,0 l/m 2 min 0 min 394 W/m 25,7 km/h (4 Bft) 95,92 %
24.03.2020 09:04 4,3 C 7,2 C 3,9 C 49 % 1033,2 hPa 0,0 l/m 2 min 0 min 399 W/m 22,5 km/h (4 Bft) 95,74 %
24.03.2020 09:06 4,3 C 7,8 C 6,1 C 50 % 1033,2 hPa 0,0 l/m 2 min 0 min 405 W/m 25,7 km/h (4 Bft) 95,65 %
24.03.2020 09:08 4,4 C 7,8 C 7,2 C 49 % 1033,2 hPa 0,0 l/m 2 min 0 min 412 W/m 25,7 km/h (4 Bft) 93,62 %
24.03.2020 09:10 4,5 C 8,9 C 8,9 C 50 % 1033,2 hPa 0,0 l/m 2 min 0 min 417 W/m 12,9 km/h (3 Bft) 95,74 %
24.03.2020 09:12 4,6 C 8,9 C 8,3 C 50 % 1033,2 hPa 0,0 l/m 2 min 0 min 421 W/m 19,3 km/h (3 Bft) 95,74 %
24.03.2020 09:14 4,7 C 8,3 C 8,9 C 49 % 1033,2 hPa 0,0 l/m 2 min 0 min 426 W/m 25,7 km/h (4 Bft) 95,74 %
24.03.2020 09:16 4,8 C 8,3 C 9,4 C 49 % 1033,1 hPa 0,0 l/m 2 min 0 min 432 W/m 29,0 km/h (5 Bft) 95,65 %
24.03.2020 09:18 4,9 C 8,3 C 9,4 C 48 % 1033,1 hPa 0,0 l/m 2 min 0 min 438 W/m 32,2 km/h (5 Bft) 95,74 %
24.03.2020 09:20 4,9 C 7,8 C 8,9 C 48 % 1033,1 hPa 0,0 l/m 2 min 0 min 443 W/m 25,7 km/h (4 Bft) 95,74 %
24.03.2020 09:22 5,0 C 7,8 C 9,4 C 48 % 1033,0 hPa 0,0 l/m 2 min 0 min 449 W/m 32,2 km/h (5 Bft) 97,87 %
24.03.2020 09:24 5,1 C 8,3 C 9,4 C 48 % 1033,1 hPa 0,0 l/m 2 min 0 min 454 W/m 12,9 km/h (3 Bft) 97,87 %
24.03.2020 09:26 5,1 C 8,3 C 9,4 C 48 % 1033,0 hPa 0,0 l/m 2 min 0 min 460 W/m 22,5 km/h (4 Bft) 97,87 %
24.03.2020 09:28 5,2 C 8,9 C 10,0 C 48 % 1033,0 hPa 0,0 l/m 2 min 0 min 465 W/m 16,1 km/h (3 Bft) 95,65 %
24.03.2020 09:30 5,3 C 8,9 C 10,0 C 48 % 1033,0 hPa 0,0 l/m 2 min 0 min 469 W/m 22,5 km/h (4 Bft) 97,87 %
24.03.2020 09:32 5,3 C 8,9 C 9,4 C 48 % 1033,1 hPa 0,0 l/m 2 min 0 min 475 W/m 25,7 km/h (4 Bft) 95,74 %
24.03.2020 09:34 5,4 C 8,3 C 9,4 C 48 % 1033,1 hPa 0,0 l/m 2 min 0 min 480 W/m 19,3 km/h (3 Bft) 97,87 %
24.03.2020 09:36 5,4 C 8,3 C 10,0 C 48 % 1033,1 hPa 0,0 l/m 2 min 0 min 484 W/m 19,3 km/h (3 Bft) 97,87 %
24.03.2020 09:38 5,5 C 8,3 C 9,4 C 47 % 1033,2 hPa 0,0 l/m 2 min 0 min 490 W/m 19,3 km/h (3 Bft) 97,87 %
24.03.2020 09:40 5,6 C 8,9 C 10,0 C 48 % 1033,2 hPa 0,0 l/m 2 min 0 min 495 W/m 32,2 km/h (5 Bft) 95,65 %
24.03.2020 09:42 5,6 C 9,4 C 10,0 C 47 % 1033,2 hPa 0,0 l/m 2 min 0 min 501 W/m 29,0 km/h (5 Bft) 95,74 %
24.03.2020 09:44 5,7 C 9,4 C 10,6 C 48 % 1033,3 hPa 0,0 l/m 2 min 0 min 505 W/m 22,5 km/h (4 Bft) 97,87 %
24.03.2020 09:46 5,7 C 9,4 C 10,0 C 48 % 1033,3 hPa 0,0 l/m 2 min 0 min 510 W/m 16,1 km/h (3 Bft) 97,87 %
24.03.2020 09:48 5,8 C 8,9 C 10,0 C 47 % 1033,3 hPa 0,0 l/m 2 min 0 min 516 W/m 25,7 km/h (4 Bft) 97,87 %
24.03.2020 09:50 5,8 C 8,9 C 8,9 C 47 % 1033,2 hPa 0,0 l/m 2 min 0 min 521 W/m 19,3 km/h (3 Bft) 97,87 %
24.03.2020 09:52 5,8 C 9,4 C 7,2 C 48 % 1033,2 hPa 0,0 l/m 2 min 0 min 525 W/m 12,9 km/h (3 Bft) 97,83 %
24.03.2020 09:54 5,8 C 9,4 C 5,6 C 47 % 1033,3 hPa 0,0 l/m 2 min 0 min 530 W/m 19,3 km/h (3 Bft) 97,87 %
24.03.2020 09:56 5,8 C 9,4 C 5,0 C 47 % 1033,2 hPa 0,0 l/m 2 min 0 min 534 W/m 16,1 km/h (3 Bft) 97,87 %
24.03.2020 09:58 5,8 C 8,9 C 5,0 C 46 % 1033,2 hPa 0,0 l/m 2 min 0 min 539 W/m 25,7 km/h (4 Bft) 95,74 %
24.03.2020 10:00 5,8 C 9,4 C 5,0 C 46 % 1033,1 hPa 0,0 l/m 2 min 0 min 543 W/m 19,3 km/h (3 Bft) 97,87 %
24.03.2020 10:02 5,9 C 9,4 C 5,0 C 47 % 1033,1 hPa 0,0 l/m 2 min 0 min 550 W/m 16,1 km/h (3 Bft) 97,87 %
24.03.2020 10:04 5,9 C 9,4 C 5,0 C 46 % 1033,1 hPa 0,0 l/m 2 min 0 min 552 W/m 41,8 km/h (6 Bft) 97,83 %
24.03.2020 10:06 6,0 C 8,9 C 5,0 C 46 % 1032,9 hPa 0,0 l/m 2 min 0 min 557 W/m 22,5 km/h (4 Bft) 97,87 %
24.03.2020 10:08 6,0 C 9,4 C 5,0 C 46 % 1032,9 hPa 0,0 l/m 2 min 0 min 562 W/m 22,5 km/h (4 Bft) 97,87 %
24.03.2020 10:10 6,1 C 9,4 C 5,0 C 46 % 1033,0 hPa 0,0 l/m 2 min 0 min 567 W/m 29,0 km/h (5 Bft) 97,87 %
24.03.2020 10:12 6,1 C 10,0 C 5,0 C 46 % 1033,0 hPa 0,0 l/m 2 min 0 min 572 W/m 19,3 km/h (3 Bft) 100,00 %
24.03.2020 10:14 6,2 C 9,4 C 5,0 C 46 % 1033,1 hPa 0,0 l/m 2 min 0 min 576 W/m 29,0 km/h (5 Bft) 100,00 %
24.03.2020 10:16 6,2 C 10,0 C 5,0 C 45 % 1033,1 hPa 0,0 l/m 2 min 0 min 579 W/m 22,5 km/h (4 Bft) 100,00 %
24.03.2020 10:18 6,3 C 10,0 C 5,0 C 45 % 1033,0 hPa 0,0 l/m 2 min 0 min 585 W/m 25,7 km/h (4 Bft) 100,00 %
24.03.2020 10:20 6,4 C 10,0 C 5,6 C 45 % 1033,2 hPa 0,0 l/m 2 min 0 min 589 W/m 22,5 km/h (4 Bft) 100,00 %
24.03.2020 10:22 6,4 C 10,6 C 5,6 C 45 % 1033,1 hPa 0,0 l/m 2 min 0 min 591 W/m 22,5 km/h (4 Bft) 97,87 %
24.03.2020 10:24 6,5 C 10,0 C 5,6 C 45 % 1033,2 hPa 0,0 l/m 2 min 0 min 597 W/m 29,0 km/h (5 Bft) 100,00 %
24.03.2020 10:26 6,6 C 10,0 C 5,0 C 45 % 1033,2 hPa 0,0 l/m 2 min 0 min 599 W/m 19,3 km/h (3 Bft) 100,00 %
24.03.2020 10:28 6,6 C 10,0 C 5,6 C 45 % 1033,1 hPa 0,0 l/m 2 min 0 min 606 W/m 25,7 km/h (4 Bft) 100,00 %
24.03.2020 10:30 6,6 C 10,0 C 5,6 C 45 % 1033,1 hPa 0,0 l/m 2 min 0 min 611 W/m 29,0 km/h (5 Bft) 100,00 %
24.03.2020 10:32 6,7 C 10,0 C 5,6 C 44 % 1033,1 hPa 0,0 l/m 2 min 0 min 616 W/m 29,0 km/h (5 Bft) 97,87 %
24.03.2020 10:34 6,7 C 9,4 C 5,6 C 44 % 1033,1 hPa 0,0 l/m 2 min 0 min 621 W/m 29,0 km/h (5 Bft) 100,00 %
24.03.2020 10:36 6,7 C 10,0 C 5,6 C 44 % 1033,2 hPa 0,0 l/m 2 min 0 min 625 W/m 29,0 km/h (5 Bft) 100,00 %
24.03.2020 10:38 6,8 C 10,0 C 5,6 C 44 % 1033,3 hPa 0,0 l/m 2 min 0 min 630 W/m 25,7 km/h (4 Bft) 93,48 %
24.03.2020 10:40 6,8 C 10,6 C 5,6 C 44 % 1033,2 hPa 0,0 l/m 2 min 0 min 633 W/m 19,3 km/h (3 Bft) 97,87 %
24.03.2020 10:42 6,9 C 10,6 C 5,6 C 44 % 1033,2 hPa 0,0 l/m 2 min 0 min 638 W/m 29,0 km/h (5 Bft) 97,87 %
24.03.2020 10:44 6,9 C 10,0 C 5,6 C 42 % 1033,1 hPa 0,0 l/m 2 min 0 min 642 W/m 29,0 km/h (5 Bft) 97,87 %
24.03.2020 10:46 6,9 C 10,0 C 5,6 C 42 % 1033,1 hPa 0,0 l/m 2 min 0 min 647 W/m 29,0 km/h (5 Bft) 95,74 %
24.03.2020 10:48 6,9 C 10,0 C 5,6 C 42 % 1033,2 hPa 0,0 l/m 2 min 0 min 650 W/m 22,5 km/h (4 Bft) 56,52 %
24.03.2020 10:50 6,9 C 10,6 C 5,6 C 42 % 1033,3 hPa 0,0 l/m 2 min 0 min 650 W/m 32,2 km/h (5 Bft) 97,83 %
24.03.2020 10:52 6,9 C 10,6 C 5,6 C 42 % 1033,2 hPa 0,0 l/m 2 min 0 min 646 W/m 25,7 km/h (4 Bft) 100,00 %
24.03.2020 10:54 7,0 C 10,0 C 6,1 C 42 % 1033,2 hPa 0,0 l/m 2 min 0 min 628 W/m 25,7 km/h (4 Bft) 100,00 %
24.03.2020 10:56 7,1 C 10,6 C 6,1 C 42 % 1033,2 hPa 0,0 l/m 2 min 0 min 607 W/m 16,1 km/h (3 Bft) 97,87 %
24.03.2020 10:58 7,1 C 10,0 C 6,1 C 41 % 1033,2 hPa 0,0 l/m 2 min 0 min 554 W/m 38,6 km/h (5 Bft) 100,00 %
24.03.2020 11:00 7,1 C 10,0 C 5,6 C 41 % 1033,2 hPa 0,0 l/m 2 min 0 min 655 W/m 29,0 km/h (5 Bft) 100,00 %
24.03.2020 11:02 7,1 C 10,0 C 5,6 C 41 % 1033,1 hPa 0,0 l/m 2 min 0 min 673 W/m 25,7 km/h (4 Bft) 97,87 %
24.03.2020 11:04 7,1 C 10,6 C 6,1 C 41 % 1033,1 hPa 0,0 l/m 2 min 0 min 675 W/m 19,3 km/h (3 Bft) 100,00 %
24.03.2020 11:06 7,1 C 11,1 C 6,1 C 42 % 1033,1 hPa 0,0 l/m 2 min 0 min 634 W/m 16,1 km/h (3 Bft) 97,87 %
24.03.2020 11:08 7,2 C 10,6 C 6,1 C 41 % 1033,1 hPa 0,0 l/m 2 min 0 min 629 W/m 25,7 km/h (4 Bft) 100,00 %
24.03.2020 11:10 7,2 C 11,1 C 6,1 C 41 % 1033,1 hPa 0,0 l/m 2 min 0 min 664 W/m 25,7 km/h (4 Bft) 95,74 %
24.03.2020 11:12 7,3 C 10,6 C 6,1 C 41 % 1033,0 hPa 0,0 l/m 2 min 0 min 695 W/m 3,2 km/h (1 Bft) 95,65 %
24.03.2020 11:14 7,3 C 11,1 C 6,7 C 42 % 1033,1 hPa 0,0 l/m 2 min 0 min 704 W/m 6,4 km/h (2 Bft) 95,74 %
24.03.2020 11:16 7,4 C 11,1 C 6,7 C 42 % 1033,1 hPa 0,0 l/m 2 min 0 min 708 W/m 16,1 km/h (3 Bft) 95,74 %
24.03.2020 11:18 7,4 C 11,7 C 6,7 C 42 % 1033,0 hPa 0,0 l/m 2 min 0 min 693 W/m 22,5 km/h (4 Bft) 93,62 %
24.03.2020 11:20 7,5 C 11,7 C 6,7 C 42 % 1033,0 hPa 0,0 l/m 2 min 0 min 681 W/m 19,3 km/h (3 Bft) 95,74 %
24.03.2020 11:22 7,6 C 11,7 C 6,7 C 41 % 1033,0 hPa 0,0 l/m 2 min 0 min 708 W/m 16,1 km/h (3 Bft) 95,74 %
24.03.2020 11:24 7,6 C 12,2 C 6,7 C 42 % 1032,9 hPa 0,0 l/m 2 min 0 min 706 W/m 16,1 km/h (3 Bft) 95,65 %
24.03.2020 11:26 7,7 C 12,2 C 6,7 C 42 % 1032,9 hPa 0,0 l/m 2 min 0 min 707 W/m 19,3 km/h (3 Bft) 95,74 %
24.03.2020 11:28 7,8 C 12,2 C 6,7 C 42 % 1033,0 hPa 0,0 l/m 2 min 0 min 706 W/m 19,3 km/h (3 Bft) 91,49 %
24.03.2020 11:30 7,8 C 12,8 C 7,2 C 42 % 1032,9 hPa 0,0 l/m 2 min 0 min 708 W/m 12,9 km/h (3 Bft) 95,74 %
24.03.2020 11:32 7,9 C 12,8 C 7,2 C 43 % 1032,8 hPa 0,0 l/m 2 min 0 min 711 W/m 12,9 km/h (3 Bft) 93,62 %
24.03.2020 11:34 7,9 C 12,2 C 7,2 C 42 % 1032,8 hPa 0,0 l/m 2 min 0 min 712 W/m 16,1 km/h (3 Bft) 95,74 %
24.03.2020 11:36 8,1 C 12,2 C 7,2 C 42 % 1032,8 hPa 0,0 l/m 2 min 0 min 715 W/m 32,2 km/h (5 Bft) 93,48 %
24.03.2020 11:38 8,1 C 11,7 C 7,2 C 41 % 1032,8 hPa 0,0 l/m 2 min 0 min 717 W/m 38,6 km/h (5 Bft) 95,74 %
24.03.2020 11:40 8,1 C 12,2 C 7,2 C 41 % 1032,7 hPa 0,0 l/m 2 min 0 min 719 W/m 19,3 km/h (3 Bft) 95,74 %
24.03.2020 11:42 8,1 C 12,2 C 7,2 C 41 % 1032,7 hPa 0,0 l/m 2 min 0 min 721 W/m 16,1 km/h (3 Bft) 100,00 %
24.03.2020 11:44 8,2 C 12,8 C 7,2 C 42 % 1032,7 hPa 0,0 l/m 2 min 0 min 722 W/m 16,1 km/h (3 Bft) 93,62 %
24.03.2020 11:46 8,2 C 12,8 C 7,8 C 42 % 1032,7 hPa 0,0 l/m 2 min 0 min 722 W/m 16,1 km/h (3 Bft) 95,74 %
24.03.2020 11:48 8,3 C 12,2 C 7,8 C 42 % 1032,7 hPa 0,0 l/m 2 min 0 min 724 W/m 29,0 km/h (5 Bft) 93,48 %
24.03.2020 11:50 8,3 C 11,7 C 7,8 C 41 % 1032,7 hPa 0,0 l/m 2 min 0 min 727 W/m 22,5 km/h (4 Bft) 97,87 %
24.03.2020 11:52 8,3 C 12,2 C 7,8 C 41 % 1032,6 hPa 0,0 l/m 2 min 0 min 729 W/m 19,3 km/h (3 Bft) 93,62 %
24.03.2020 11:54 8,4 C 12,8 C 7,8 C 41 % 1032,7 hPa 0,0 l/m 2 min 0 min 731 W/m 22,5 km/h (4 Bft) 97,87 %
24.03.2020 11:56 8,4 C 12,2 C 7,8 C 40 % 1032,6 hPa 0,0 l/m 2 min 0 min 733 W/m 25,7 km/h (4 Bft) 97,87 %
24.03.2020 11:58 8,4 C 12,2 C 7,8 C 41 % 1032,6 hPa 0,0 l/m 2 min 0 min 735 W/m 22,5 km/h (4 Bft) 100,00 %
24.03.2020 12:00 8,5 C 12,2 C 7,8 C 41 % 1032,6 hPa 0,0 l/m 2 min 0 min 737 W/m 22,5 km/h (4 Bft) 100,00 %
24.03.2020 12:02 8,6 C 13,3 C 8,3 C 41 % 1032,5 hPa 0,0 l/m 2 min 0 min 737 W/m 6,4 km/h (2 Bft) 97,87 %
24.03.2020 12:04 8,6 C 12,8 C 8,3 C 40 % 1032,5 hPa 0,0 l/m 2 min 0 min 739 W/m 29,0 km/h (5 Bft) 97,87 %
24.03.2020 12:08 8,7 C 13,3 C 8,3 C 40 % 1032,5 hPa 0,0 l/m 4 min 0 min 739 W/m 19,3 km/h (3 Bft) 100,00 %
24.03.2020 12:10 8,8 C 13,3 C 8,9 C 40 % 1032,4 hPa 0,0 l/m 2 min 0 min 741 W/m 16,1 km/h (3 Bft) 97,83 %
24.03.2020 12:12 8,8 C 13,9 C 8,3 C 40 % 1032,4 hPa 0,0 l/m 2 min 0 min 743 W/m 19,3 km/h (3 Bft) 97,87 %
24.03.2020 12:14 8,9 C 13,3 C 8,9 C 40 % 1032,2 hPa 0,0 l/m 2 min 0 min 743 W/m 29,0 km/h (5 Bft) 100,00 %
24.03.2020 12:16 9,0 C 12,8 C 8,3 C 38 % 1032,3 hPa 0,0 l/m 2 min 0 min 745 W/m 19,3 km/h (3 Bft) 100,00 %
24.03.2020 12:18 9,0 C 12,2 C 8,3 C 38 % 1032,3 hPa 0,0 l/m 2 min 0 min 746 W/m 22,5 km/h (4 Bft) 100,00 %
24.03.2020 12:20 9,0 C 12,8 C 8,3 C 38 % 1032,3 hPa 0,0 l/m 2 min 0 min 749 W/m 25,7 km/h (4 Bft) 100,00 %
24.03.2020 12:22 9,1 C 12,8 C 8,9 C 39 % 1032,2 hPa 0,0 l/m 2 min 0 min 748 W/m 19,3 km/h (3 Bft) 97,83 %
24.03.2020 12:24 9,1 C 12,8 C 8,9 C 38 % 1032,2 hPa 0,0 l/m 2 min 0 min 749 W/m 19,3 km/h (3 Bft) 100,00 %
24.03.2020 12:26 9,1 C 12,8 C 8,9 C 38 % 1032,2 hPa 0,0 l/m 2 min 0 min 749 W/m 25,7 km/h (4 Bft) 100,00 %
24.03.2020 12:28 9,1 C 12,2 C 8,9 C 38 % 1032,2 hPa 0,0 l/m 2 min 0 min 750 W/m 38,6 km/h (5 Bft) 100,00 %
24.03.2020 12:30 9,1 C 12,8 C 8,9 C 38 % 1032,1 hPa 0,0 l/m 2 min 0 min 751 W/m 22,5 km/h (4 Bft) 100,00 %
24.03.2020 12:32 9,1 C 12,8 C 9,4 C 38 % 1032,1 hPa 0,0 l/m 2 min 0 min 752 W/m 16,1 km/h (3 Bft) 97,87 %
24.03.2020 12:34 9,2 C 13,9 C 9,4 C 38 % 1032,1 hPa 0,0 l/m 2 min 0 min 755 W/m 16,1 km/h (3 Bft) 100,00 %
24.03.2020 12:36 9,3 C 14,4 C 10,0 C 37 % 1032,1 hPa 0,0 l/m 2 min 0 min 755 W/m 16,1 km/h (3 Bft) 100,00 %
24.03.2020 12:38 9,4 C 13,3 C 10,6 C 36 % 1032,0 hPa 0,0 l/m 2 min 0 min 752 W/m 35,4 km/h (5 Bft) 97,87 %
24.03.2020 12:40 9,6 C 13,3 C 12,2 C 36 % 1032,1 hPa 0,0 l/m 2 min 0 min 752 W/m 25,7 km/h (4 Bft) 100,00 %
24.03.2020 12:42 9,6 C 13,3 C 12,8 C 36 % 1032,1 hPa 0,0 l/m 2 min 0 min 753 W/m 22,5 km/h (4 Bft) 100,00 %
24.03.2020 12:44 9,6 C 13,3 C 13,3 C 36 % 1032,0 hPa 0,0 l/m 2 min 0 min 752 W/m 25,7 km/h (4 Bft) 97,87 %
24.03.2020 12:46 9,6 C 13,9 C 13,9 C 36 % 1032,0 hPa 0,0 l/m 2 min 0 min 751 W/m 29,0 km/h (5 Bft) 100,00 %
24.03.2020 12:48 9,7 C 13,9 C 14,4 C 36 % 1032,0 hPa 0,0 l/m 2 min 0 min 752 W/m 19,3 km/h (3 Bft) 100,00 %
24.03.2020 12:50 9,7 C 12,8 C 14,4 C 37 % 1032,0 hPa 0,0 l/m 2 min 0 min 751 W/m 29,0 km/h (5 Bft) 100,00 %
24.03.2020 12:52 9,7 C 13,3 C 15,0 C 37 % 1032,1 hPa 0,0 l/m 2 min 0 min 751 W/m 19,3 km/h (3 Bft) 97,87 %
24.03.2020 12:54 9,7 C 13,3 C 14,4 C 36 % 1032,0 hPa 0,0 l/m 2 min 0 min 750 W/m 16,1 km/h (3 Bft) 100,00 %
24.03.2020 12:56 9,7 C 13,3 C 14,4 C 36 % 1032,1 hPa 0,0 l/m 2 min 0 min 748 W/m 32,2 km/h (5 Bft) 97,87 %
24.03.2020 12:58 9,7 C 12,8 C 14,4 C 36 % 1032,0 hPa 0,0 l/m 2 min 0 min 751 W/m 35,4 km/h (5 Bft) 100,00 %
24.03.2020 13:00 9,7 C 12,2 C 14,4 C 36 % 1032,0 hPa 0,0 l/m 2 min 0 min 750 W/m 41,8 km/h (6 Bft) 100,00 %
24.03.2020 13:02 9,7 C 13,3 C 15,6 C 36 % 1032,0 hPa 0,0 l/m 2 min 0 min 748 W/m 19,3 km/h (3 Bft) 100,00 %
24.03.2020 13:04 9,7 C 13,3 C 16,1 C 36 % 1031,9 hPa 0,0 l/m 2 min 0 min 750 W/m 22,5 km/h (4 Bft) 100,00 %
24.03.2020 13:06 9,7 C 13,3 C 15,0 C 35 % 1031,9 hPa 0,0 l/m 2 min 0 min 749 W/m 22,5 km/h (4 Bft) 100,00 %
24.03.2020 13:08 9,7 C 13,3 C 15,6 C 35 % 1031,9 hPa 0,0 l/m 2 min 0 min 747 W/m 29,0 km/h (5 Bft) 95,74 %
24.03.2020 13:10 9,8 C 13,3 C 15,0 C 35 % 1031,8 hPa 0,0 l/m 2 min 0 min 747 W/m 22,5 km/h (4 Bft) 100,00 %
24.03.2020 13:12 9,8 C 13,3 C 15,0 C 36 % 1031,8 hPa 0,0 l/m 2 min 0 min 745 W/m 29,0 km/h (5 Bft) 100,00 %
24.03.2020 13:14 9,8 C 12,8 C 15,0 C 35 % 1031,8 hPa 0,0 l/m 2 min 0 min 745 W/m 19,3 km/h (3 Bft) 100,00 %
24.03.2020 13:16 9,8 C 13,9 C 15,6 C 36 % 1031,8 hPa 0,0 l/m 2 min 0 min 744 W/m 16,1 km/h (3 Bft) 100,00 %
24.03.2020 13:18 9,8 C 13,9 C 16,1 C 36 % 1031,7 hPa 0,0 l/m 2 min 0 min 743 W/m 22,5 km/h (4 Bft) 100,00 %
24.03.2020 13:20 9,9 C 13,9 C 16,1 C 36 % 1031,7 hPa 0,0 l/m 2 min 0 min 743 W/m 25,7 km/h (4 Bft) 100,00 %
24.03.2020 13:22 9,9 C 13,9 C 15,6 C 35 % 1031,6 hPa 0,0 l/m 2 min 0 min 742 W/m 16,1 km/h (3 Bft) 100,00 %
24.03.2020 13:24 10,0 C 13,9 C 15,0 C 35 % 1031,6 hPa 0,0 l/m 2 min 0 min 740 W/m 19,3 km/h (3 Bft) 100,00 %
24.03.2020 13:26 10,1 C 14,4 C 14,4 C 35 % 1031,6 hPa 0,0 l/m 2 min 0 min 741 W/m 22,5 km/h (4 Bft) 100,00 %
24.03.2020 13:28 10,1 C 13,9 C 13,9 C 35 % 1031,6 hPa 0,0 l/m 2 min 0 min 739 W/m 25,7 km/h (4 Bft) 97,87 %
24.03.2020 13:30 10,1 C 13,3 C 13,9 C 34 % 1031,5 hPa 0,0 l/m 2 min 0 min 737 W/m 25,7 km/h (4 Bft) 100,00 %
24.03.2020 13:32 10,2 C 13,9 C 13,3 C 34 % 1031,6 hPa 0,0 l/m 2 min 0 min 737 W/m 29,0 km/h (5 Bft) 100,00 %
24.03.2020 13:34 10,2 C 13,3 C 11,7 C 34 % 1031,5 hPa 0,0 l/m 2 min 0 min 735 W/m 19,3 km/h (3 Bft) 100,00 %
24.03.2020 13:36 10,2 C 13,3 C 11,1 C 34 % 1031,5 hPa 0,0 l/m 2 min 0 min 735 W/m 22,5 km/h (4 Bft) 97,87 %
24.03.2020 13:38 10,2 C 12,8 C 10,6 C 33 % 1031,4 hPa 0,0 l/m 2 min 0 min 730 W/m 35,4 km/h (5 Bft) 97,87 %
24.03.2020 13:40 10,2 C 13,3 C 11,1 C 34 % 1031,4 hPa 0,0 l/m 2 min 0 min 729 W/m 35,4 km/h (5 Bft) 97,87 %
24.03.2020 13:42 10,2 C 13,9 C 10,6 C 34 % 1031,4 hPa 0,0 l/m 2 min 0 min 726 W/m 32,2 km/h (5 Bft) 95,74 %
24.03.2020 13:44 10,3 C 13,9 C 10,6 C 34 % 1031,4 hPa 0,0 l/m 2 min 0 min 726 W/m 25,7 km/h (4 Bft) 97,83 %
24.03.2020 13:46 10,3 C 13,3 C 10,6 C 34 % 1031,3 hPa 0,0 l/m 2 min 0 min 723 W/m 22,5 km/h (4 Bft) 95,74 %
24.03.2020 13:48 10,3 C 13,3 C 10,6 C 34 % 1031,3 hPa 0,0 l/m 2 min 0 min 722 W/m 22,5 km/h (4 Bft) 97,87 %
24.03.2020 13:50 10,3 C 13,9 C 10,6 C 33 % 1031,3 hPa 0,0 l/m 2 min 0 min 720 W/m 29,0 km/h (5 Bft) 95,74 %
24.03.2020 13:52 10,3 C 13,3 C 10,0 C 33 % 1031,3 hPa 0,0 l/m 2 min 0 min 717 W/m 19,3 km/h (3 Bft) 97,87 %
24.03.2020 13:54 10,3 C 13,3 C 10,0 C 33 % 1031,3 hPa 0,0 l/m 2 min 0 min 717 W/m 16,1 km/h (3 Bft) 95,74 %
24.03.2020 13:56 10,3 C 13,9 C 10,6 C 33 % 1031,3 hPa 0,0 l/m 2 min 0 min 714 W/m 25,7 km/h (4 Bft) 95,65 %
24.03.2020 13:58 10,3 C 13,9 C 10,6 C 34 % 1031,3 hPa 0,0 l/m 2 min 0 min 711 W/m 29,0 km/h (5 Bft) 95,74 %
24.03.2020 14:00 10,3 C 14,4 C 10,6 C 34 % 1031,2 hPa 0,0 l/m 2 min 0 min 708 W/m 25,7 km/h (4 Bft) 95,74 %
24.03.2020 14:02 10,4 C 14,4 C 10,6 C 34 % 1031,2 hPa 0,0 l/m 2 min 0 min 706 W/m 19,3 km/h (3 Bft) 93,62 %
24.03.2020 14:04 10,4 C 14,4 C 10,6 C 34 % 1031,2 hPa 0,0 l/m 2 min 0 min 704 W/m 19,3 km/h (3 Bft) 93,62 %
24.03.2020 14:06 10,5 C 14,4 C 10,6 C 34 % 1031,1 hPa 0,0 l/m 2 min 0 min 702 W/m 16,1 km/h (3 Bft) 95,65 %
24.03.2020 14:08 10,6 C 14,4 C 10,6 C 34 % 1031,2 hPa 0,0 l/m 2 min 0 min 700 W/m 22,5 km/h (4 Bft) 93,62 %
24.03.2020 14:10 10,6 C 13,9 C 10,6 C 33 % 1031,2 hPa 0,0 l/m 2 min 0 min 698 W/m 22,5 km/h (4 Bft) 95,74 %
24.03.2020 14:12 10,6 C 13,9 C 10,6 C 34 % 1031,1 hPa 0,0 l/m 2 min 0 min 695 W/m 29,0 km/h (5 Bft) 95,74 %
24.03.2020 14:14 10,6 C 14,4 C 10,6 C 34 % 1031,1 hPa 0,0 l/m 2 min 0 min 692 W/m 16,1 km/h (3 Bft) 95,74 %
24.03.2020 14:16 10,6 C 13,9 C 10,6 C 33 % 1031,1 hPa 0,0 l/m 2 min 0 min 693 W/m 19,3 km/h (3 Bft) 95,74 %
24.03.2020 14:18 10,7 C 14,4 C 11,1 C 33 % 1031,0 hPa 0,0 l/m 2 min 0 min 692 W/m 16,1 km/h (3 Bft) 97,83 %
24.03.2020 14:20 10,7 C 14,4 C 11,1 C 34 % 1031,0 hPa 0,0 l/m 2 min 0 min 690 W/m 19,3 km/h (3 Bft) 93,62 %
24.03.2020 14:22 10,8 C 14,4 C 11,1 C 34 % 1030,9 hPa 0,0 l/m 2 min 0 min 682 W/m 22,5 km/h (4 Bft) 95,74 %
24.03.2020 14:24 10,8 C 15,0 C 11,1 C 34 % 1030,8 hPa 0,0 l/m 2 min 0 min 682 W/m 22,5 km/h (4 Bft) 93,62 %
24.03.2020 14:26 10,9 C 14,4 C 11,1 C 33 % 1030,9 hPa 0,0 l/m 2 min 0 min 676 W/m 19,3 km/h (3 Bft) 95,74 %
24.03.2020 14:28 10,9 C 13,9 C 10,6 C 33 % 1030,8 hPa 0,0 l/m 2 min 0 min 672 W/m 19,3 km/h (3 Bft) 95,74 %
24.03.2020 14:30 10,9 C 14,4 C 11,1 C 33 % 1030,8 hPa 0,0 l/m 2 min 0 min 670 W/m 12,9 km/h (3 Bft) 95,65 %
24.03.2020 14:32 11,0 C 14,4 C 11,1 C 34 % 1030,8 hPa 0,0 l/m 2 min 0 min 664 W/m 25,7 km/h (4 Bft) 95,74 %
24.03.2020 14:34 11,0 C 13,9 C 11,1 C 33 % 1030,8 hPa 0,0 l/m 2 min 0 min 664 W/m 25,7 km/h (4 Bft) 97,87 %
24.03.2020 14:36 11,0 C 13,9 C 11,1 C 33 % 1030,8 hPa 0,0 l/m 2 min 0 min 664 W/m 29,0 km/h (5 Bft) 97,87 %
24.03.2020 14:38 11,0 C 13,9 C 10,6 C 32 % 1030,8 hPa 0,0 l/m 2 min 0 min 659 W/m 22,5 km/h (4 Bft) 97,87 %
24.03.2020 14:40 11,0 C 14,4 C 11,7 C 33 % 1030,8 hPa 0,0 l/m 2 min 0 min 655 W/m 16,1 km/h (3 Bft) 97,87 %
24.03.2020 14:42 11,0 C 14,4 C 11,1 C 32 % 1030,7 hPa 0,0 l/m 2 min 0 min 651 W/m 19,3 km/h (3 Bft) 97,83 %
24.03.2020 14:44 11,0 C 14,4 C 11,1 C 32 % 1030,7 hPa 0,0 l/m 2 min 0 min 647 W/m 32,2 km/h (5 Bft) 97,87 %
24.03.2020 14:46 11,1 C 13,9 C 11,1 C 32 % 1030,8 hPa 0,0 l/m 2 min 0 min 644 W/m 32,2 km/h (5 Bft) 95,74 %
24.03.2020 14:48 11,1 C 13,9 C 11,1 C 32 % 1030,7 hPa 0,0 l/m 2 min 0 min 639 W/m 22,5 km/h (4 Bft) 97,87 %
24.03.2020 14:50 11,1 C 14,4 C 11,1 C 32 % 1030,7 hPa 0,0 l/m 2 min 0 min 636 W/m 16,1 km/h (3 Bft) 95,74 %
24.03.2020 14:52 11,1 C 14,4 C 11,1 C 32 % 1030,7 hPa 0,0 l/m 2 min 0 min 632 W/m 22,5 km/h (4 Bft) 97,87 %
24.03.2020 14:54 11,1 C 14,4 C 11,7 C 33 % 1030,6 hPa 0,0 l/m 2 min 0 min 628 W/m 19,3 km/h (3 Bft) 97,83 %
24.03.2020 14:56 11,1 C 14,4 C 11,1 C 32 % 1030,6 hPa 0,0 l/m 2 min 0 min 623 W/m 19,3 km/h (3 Bft) 97,87 %
24.03.2020 14:58 11,2 C 15,0 C 11,7 C 33 % 1030,5 hPa 0,0 l/m 2 min 0 min 620 W/m 6,4 km/h (2 Bft) 97,87 %
24.03.2020 15:00 11,2 C 15,0 C 11,7 C 34 % 1030,5 hPa 0,0 l/m 2 min 0 min 616 W/m 12,9 km/h (3 Bft) 97,87 %
24.03.2020 15:02 11,2 C 15,0 C 11,7 C 34 % 1030,5 hPa 0,0 l/m 2 min 0 min 612 W/m 12,9 km/h (3 Bft) 97,87 %
24.03.2020 15:04 11,3 C 15,0 C 11,7 C 33 % 1030,5 hPa 0,0 l/m 2 min 0 min 609 W/m 12,9 km/h (3 Bft) 97,83 %
24.03.2020 15:06 11,3 C 15,6 C 11,7 C 34 % 1030,5 hPa 0,0 l/m 2 min 0 min 605 W/m 9,7 km/h (2 Bft) 97,87 %
24.03.2020 15:08 11,4 C 15,6 C 11,7 C 35 % 1030,5 hPa 0,0 l/m 2 min 0 min 600 W/m 9,7 km/h (2 Bft) 97,87 %
24.03.2020 15:10 11,4 C 15,0 C 11,7 C 34 % 1030,4 hPa 0,0 l/m 2 min 0 min 596 W/m 19,3 km/h (3 Bft) 97,87 %
24.03.2020 15:12 11,5 C 15,0 C 12,2 C 34 % 1030,4 hPa 0,0 l/m 2 min 0 min 593 W/m 22,5 km/h (4 Bft) 97,87 %
24.03.2020 15:14 11,6 C 14,4 C 11,7 C 33 % 1030,4 hPa 0,0 l/m 2 min 0 min 588 W/m 22,5 km/h (4 Bft) 100,00 %
24.03.2020 15:16 11,6 C 15,0 C 11,7 C 34 % 1030,3 hPa 0,0 l/m 2 min 0 min 583 W/m 12,9 km/h (3 Bft) 100,00 %
24.03.2020 15:18 11,6 C 15,0 C 11,7 C 33 % 1030,2 hPa 0,0 l/m 2 min 0 min 579 W/m 6,4 km/h (2 Bft) 100,00 %
24.03.2020 15:20 11,6 C 15,6 C 12,2 C 33 % 1030,2 hPa 0,0 l/m 2 min 0 min 575 W/m 16,1 km/h (3 Bft) 100,00 %
24.03.2020 15:22 11,6 C 14,4 C 11,7 C 32 % 1030,1 hPa 0,0 l/m 2 min 0 min 569 W/m 19,3 km/h (3 Bft) 100,00 %
24.03.2020 15:24 11,6 C 14,4 C 11,7 C 32 % 1030,1 hPa 0,0 l/m 2 min 0 min 564 W/m 16,1 km/h (3 Bft) 100,00 %
24.03.2020 15:26 11,6 C 14,4 C 11,7 C 32 % 1030,0 hPa 0,0 l/m 2 min 0 min 560 W/m 19,3 km/h (3 Bft) 100,00 %
24.03.2020 15:28 11,6 C 13,9 C 11,7 C 32 % 1030,0 hPa 0,0 l/m 2 min 0 min 555 W/m 22,5 km/h (4 Bft) 100,00 %
24.03.2020 15:30 11,6 C 14,4 C 11,7 C 33 % 1030,0 hPa 0,0 l/m 2 min 0 min 551 W/m 16,1 km/h (3 Bft) 100,00 %
24.03.2020 15:32 11,6 C 14,4 C 11,7 C 32 % 1030,1 hPa 0,0 l/m 2 min 0 min 546 W/m 16,1 km/h (3 Bft) 100,00 %
24.03.2020 15:34 11,7 C 15,0 C 11,7 C 33 % 1030,0 hPa 0,0 l/m 2 min 0 min 540 W/m 16,1 km/h (3 Bft) 100,00 %
24.03.2020 15:36 11,7 C 14,4 C 11,7 C 32 % 1030,0 hPa 0,0 l/m 2 min 0 min 534 W/m 25,7 km/h (4 Bft) 100,00 %
24.03.2020 15:38 11,7 C 15,6 C 11,7 C 33 % 1030,0 hPa 0,0 l/m 2 min 0 min 531 W/m 19,3 km/h (3 Bft) 100,00 %
24.03.2020 15:40 11,7 C 15,6 C 11,7 C 33 % 1030,0 hPa 0,0 l/m 2 min 0 min 526 W/m 16,1 km/h (3 Bft) 100,00 %
24.03.2020 15:42 11,8 C 15,0 C 11,7 C 32 % 1030,0 hPa 0,0 l/m 2 min 0 min 521 W/m 19,3 km/h (3 Bft) 100,00 %
24.03.2020 15:44 11,8 C 14,4 C 11,7 C 30 % 1029,9 hPa 0,0 l/m 2 min 0 min 518 W/m 22,5 km/h (4 Bft) 100,00 %
24.03.2020 15:46 11,8 C 14,4 C 11,7 C 31 % 1029,9 hPa 0,0 l/m 2 min 0 min 512 W/m 25,7 km/h (4 Bft) 100,00 %
24.03.2020 15:48 11,8 C 13,9 C 12,2 C 30 % 1029,9 hPa 0,0 l/m 2 min 0 min 506 W/m 22,5 km/h (4 Bft) 100,00 %
24.03.2020 15:50 11,7 C 14,4 C 13,3 C 31 % 1029,8 hPa 0,0 l/m 2 min 0 min 502 W/m 19,3 km/h (3 Bft) 97,87 %
24.03.2020 15:52 11,7 C 14,4 C 13,3 C 31 % 1029,9 hPa 0,0 l/m 2 min 0 min 495 W/m 16,1 km/h (3 Bft) 97,83 %
24.03.2020 15:54 11,7 C 14,4 C 12,8 C 31 % 1029,9 hPa 0,0 l/m 2 min 0 min 491 W/m 16,1 km/h (3 Bft) 97,87 %
24.03.2020 15:56 11,7 C 14,4 C 12,2 C 32 % 1029,8 hPa 0,0 l/m 2 min 0 min 486 W/m 19,3 km/h (3 Bft) 97,87 %
24.03.2020 15:58 11,7 C 14,4 C 12,2 C 33 % 1029,8 hPa 0,0 l/m 2 min 0 min 481 W/m 16,1 km/h (3 Bft) 97,87 %
24.03.2020 16:00 11,7 C 14,4 C 13,3 C 32 % 1029,7 hPa 0,0 l/m 2 min 0 min 476 W/m 16,1 km/h (3 Bft) 97,87 %
24.03.2020 16:02 11,7 C 14,4 C 15,6 C 32 % 1029,7 hPa 0,0 l/m 2 min 0 min 472 W/m 12,9 km/h (3 Bft) 97,87 %
24.03.2020 16:04 11,7 C 14,4 C 16,7 C 32 % 1029,7 hPa 0,0 l/m 2 min 0 min 466 W/m 25,7 km/h (4 Bft) 97,83 %
24.03.2020 16:06 11,8 C 15,0 C 17,2 C 33 % 1029,7 hPa 0,0 l/m 2 min 0 min 460 W/m 25,7 km/h (4 Bft) 95,74 %
24.03.2020 16:08 11,8 C 13,9 C 15,0 C 32 % 1029,6 hPa 0,0 l/m 2 min 0 min 454 W/m 19,3 km/h (3 Bft) 97,87 %
24.03.2020 16:10 11,8 C 13,9 C 14,4 C 31 % 1029,6 hPa 0,0 l/m 2 min 0 min 450 W/m 29,0 km/h (5 Bft) 97,87 %
24.03.2020 16:12 11,8 C 13,9 C 15,0 C 31 % 1029,6 hPa 0,0 l/m 2 min 0 min 445 W/m 22,5 km/h (4 Bft) 97,87 %
24.03.2020 16:14 11,8 C 13,3 C 14,4 C 30 % 1029,6 hPa 0,0 l/m 2 min 0 min 438 W/m 35,4 km/h (5 Bft) 97,87 %
24.03.2020 16:16 11,7 C 13,3 C 13,9 C 31 % 1029,6 hPa 0,0 l/m 2 min 0 min 432 W/m 32,2 km/h (5 Bft) 97,83 %
24.03.2020 16:18 11,6 C 13,3 C 13,9 C 32 % 1029,6 hPa 0,0 l/m 2 min 0 min 427 W/m 19,3 km/h (3 Bft) 97,87 %
24.03.2020 16:20 11,6 C 13,9 C 12,2 C 32 % 1029,5 hPa 0,0 l/m 2 min 0 min 421 W/m 22,5 km/h (4 Bft) 97,87 %
24.03.2020 16:22 11,6 C 13,9 C 13,3 C 32 % 1029,5 hPa 0,0 l/m 2 min 0 min 416 W/m 6,4 km/h (2 Bft) 93,62 %
24.03.2020 16:24 11,6 C 13,3 C 13,9 C 32 % 1029,5 hPa 0,0 l/m 2 min 0 min 410 W/m 32,2 km/h (5 Bft) 95,74 %
24.03.2020 16:26 11,6 C 13,9 C 13,9 C 32 % 1029,5 hPa 0,0 l/m 2 min 0 min 404 W/m 16,1 km/h (3 Bft) 93,48 %
24.03.2020 16:28 11,6 C 14,4 C 12,8 C 33 % 1029,5 hPa 0,0 l/m 2 min 0 min 397 W/m 16,1 km/h (3 Bft) 95,74 %
24.03.2020 16:30 11,7 C 14,4 C 11,7 C 33 % 1029,5 hPa 0,0 l/m 2 min 0 min 393 W/m 16,1 km/h (3 Bft) 93,62 %
24.03.2020 16:32 11,7 C 14,4 C 11,1 C 33 % 1029,5 hPa 0,0 l/m 2 min 0 min 388 W/m 12,9 km/h (3 Bft) 95,74 %
24.03.2020 16:34 11,7 C 13,9 C 10,6 C 33 % 1029,5 hPa 0,0 l/m 2 min 0 min 382 W/m 22,5 km/h (4 Bft) 95,74 %
24.03.2020 16:36 11,7 C 13,9 C 10,6 C 32 % 1029,5 hPa 0,0 l/m 2 min 0 min 376 W/m 29,0 km/h (5 Bft) 95,74 %
24.03.2020 16:38 11,7 C 13,3 C 10,6 C 32 % 1029,5 hPa 0,0 l/m 2 min 0 min 369 W/m 22,5 km/h (4 Bft) 97,83 %
24.03.2020 16:40 11,7 C 13,3 C 10,6 C 32 % 1029,5 hPa 0,0 l/m 2 min 0 min 362 W/m 19,3 km/h (3 Bft) 93,62 %
24.03.2020 16:42 11,7 C 13,3 C 10,0 C 32 % 1029,5 hPa 0,0 l/m 2 min 0 min 356 W/m 22,5 km/h (4 Bft) 97,87 %
24.03.2020 16:44 11,6 C 12,8 C 10,0 C 33 % 1029,4 hPa 0,0 l/m 2 min 0 min 351 W/m 22,5 km/h (4 Bft) 95,74 %
24.03.2020 16:46 11,6 C 12,8 C 10,0 C 32 % 1029,4 hPa 0,0 l/m 2 min 0 min 344 W/m 35,4 km/h (5 Bft) 95,74 %
24.03.2020 16:48 11,6 C 12,8 C 10,0 C 32 % 1029,4 hPa 0,0 l/m 2 min 0 min 337 W/m 22,5 km/h (4 Bft) 93,62 %
24.03.2020 16:50 11,5 C 13,3 C 10,0 C 33 % 1029,4 hPa 0,0 l/m 2 min 0 min 325 W/m 16,1 km/h (3 Bft) 97,83 %
24.03.2020 16:52 11,5 C 12,8 C 10,0 C 33 % 1029,4 hPa 0,0 l/m 2 min 0 min 318 W/m 19,3 km/h (3 Bft) 97,87 %
24.03.2020 16:54 11,4 C 11,7 C 10,0 C 33 % 1029,4 hPa 0,0 l/m 2 min 0 min 303 W/m 12,9 km/h (3 Bft) 97,87 %
24.03.2020 16:56 11,4 C 11,1 C 10,0 C 34 % 1029,3 hPa 0,0 l/m 2 min 0 min 300 W/m 25,7 km/h (4 Bft) 97,87 %
24.03.2020 16:58 11,3 C 10,6 C 10,0 C 34 % 1029,4 hPa 0,0 l/m 2 min 0 min 200 W/m 19,3 km/h (3 Bft) 95,74 %
24.03.2020 17:00 11,3 C 10,6 C 9,4 C 34 % 1029,4 hPa 0,0 l/m 0 min 0 min 67 W/m 22,5 km/h (4 Bft) 97,83 %
24.03.2020 17:02 11,2 C 10,6 C 9,4 C 34 % 1029,3 hPa 0,0 l/m 0 min 0 min 51 W/m 16,1 km/h (3 Bft) 97,87 %
24.03.2020 17:04 11,2 C 10,6 C 9,4 C 34 % 1029,3 hPa 0,0 l/m 0 min 0 min 50 W/m 16,1 km/h (3 Bft) 98,04 %
24.03.2020 17:06 11,1 C 10,0 C 9,4 C 34 % 1029,4 hPa 0,0 l/m 0 min 0 min 47 W/m 16,1 km/h (3 Bft) 97,83 %
24.03.2020 17:08 11,0 C 10,0 C 9,4 C 34 % 1029,3 hPa 0,0 l/m 0 min 0 min 49 W/m 22,5 km/h (4 Bft) 100,00 %
24.03.2020 17:10 10,9 C 10,0 C 9,4 C 34 % 1029,4 hPa 0,0 l/m 0 min 0 min 48 W/m 16,1 km/h (3 Bft) 100,00 %
24.03.2020 17:12 10,8 C 10,0 C 9,4 C 34 % 1029,4 hPa 0,0 l/m 0 min 0 min 47 W/m 22,5 km/h (4 Bft) 97,87 %
24.03.2020 17:14 10,8 C 10,0 C 9,4 C 33 % 1029,4 hPa 0,0 l/m 0 min 0 min 46 W/m 16,1 km/h (3 Bft) 97,87 %
24.03.2020 17:16 10,7 C 10,0 C 9,4 C 34 % 1029,4 hPa 0,0 l/m 0 min 0 min 45 W/m 22,5 km/h (4 Bft) 97,87 %
24.03.2020 17:18 10,7 C 10,0 C 9,4 C 33 % 1029,4 hPa 0,0 l/m 0 min 0 min 42 W/m 25,7 km/h (4 Bft) 97,83 %
24.03.2020 17:20 10,7 C 10,0 C 8,9 C 34 % 1029,4 hPa 0,0 l/m 0 min 0 min 41 W/m 22,5 km/h (4 Bft) 97,87 %
24.03.2020 17:22 10,6 C 10,0 C 8,9 C 34 % 1029,4 hPa 0,0 l/m 0 min 0 min 43 W/m 25,7 km/h (4 Bft) 97,87 %
24.03.2020 17:24 10,6 C 10,0 C 8,9 C 34 % 1029,3 hPa 0,0 l/m 0 min 0 min 44 W/m 25,7 km/h (4 Bft) 97,87 %
24.03.2020 17:26 10,6 C 9,4 C 8,9 C 34 % 1029,4 hPa 0,0 l/m 0 min 0 min 44 W/m 25,7 km/h (4 Bft) 97,87 %
24.03.2020 17:28 10,5 C 9,4 C 8,9 C 34 % 1029,3 hPa 0,0 l/m 0 min 0 min 44 W/m 19,3 km/h (3 Bft) 95,74 %
24.03.2020 17:30 10,4 C 10,0 C 8,9 C 35 % 1029,3 hPa 0,0 l/m 0 min 0 min 45 W/m 12,9 km/h (3 Bft) 97,83 %
24.03.2020 17:32 10,4 C 9,4 C 8,9 C 35 % 1029,4 hPa 0,0 l/m 0 min 0 min 46 W/m 19,3 km/h (3 Bft) 97,87 %
24.03.2020 17:34 10,4 C 9,4 C 8,9 C 35 % 1029,4 hPa 0,0 l/m 0 min 0 min 46 W/m 19,3 km/h (3 Bft) 95,74 %
24.03.2020 17:36 10,4 C 9,4 C 8,9 C 35 % 1029,4 hPa 0,0 l/m 0 min 0 min 46 W/m 16,1 km/h (3 Bft) 97,87 %
24.03.2020 17:38 10,3 C 9,4 C 8,9 C 35 % 1029,4 hPa 0,0 l/m 0 min 0 min 45 W/m 22,5 km/h (4 Bft) 97,87 %
24.03.2020 17:40 10,3 C 9,4 C 8,9 C 35 % 1029,4 hPa 0,0 l/m 0 min 0 min 44 W/m 16,1 km/h (3 Bft) 95,74 %
24.03.2020 17:42 10,3 C 9,4 C 8,9 C 35 % 1029,5 hPa 0,0 l/m 0 min 0 min 44 W/m 35,4 km/h (5 Bft) 100,00 %
24.03.2020 17:44 10,3 C 9,4 C 8,9 C 35 % 1029,4 hPa 0,0 l/m 0 min 0 min 42 W/m 22,5 km/h (4 Bft) 97,87 %
24.03.2020 17:46 10,3 C 9,4 C 8,9 C 35 % 1029,4 hPa 0,0 l/m 0 min 0 min 41 W/m 22,5 km/h (4 Bft) 97,87 %
24.03.2020 17:48 10,2 C 9,4 C 8,9 C 35 % 1029,5 hPa 0,0 l/m 0 min 0 min 40 W/m 12,9 km/h (3 Bft) 100,00 %
24.03.2020 17:50 10,2 C 9,4 C 8,9 C 35 % 1029,5 hPa 0,0 l/m 0 min 0 min 39 W/m 16,1 km/h (3 Bft) 97,87 %
24.03.2020 17:52 10,2 C 9,4 C 8,9 C 35 % 1029,4 hPa 0,0 l/m 0 min 0 min 39 W/m 12,9 km/h (3 Bft) 45,95 %
24.03.2020 17:54 10,2 C 9,4 C 8,9 C 35 % 1029,5 hPa 0,0 l/m 0 min 0 min 37 W/m 22,5 km/h (4 Bft) 100,00 %
24.03.2020 17:56 10,1 C 9,4 C 8,3 C 35 % 1029,6 hPa 0,0 l/m 0 min 0 min 36 W/m 0,0 km/h (0 Bft) 97,92 %
24.03.2020 17:58 10,1 C 9,4 C 8,3 C 35 % 1029,6 hPa 0,0 l/m 0 min 0 min 35 W/m 12,9 km/h (3 Bft) 100,00 %
24.03.2020 18:00 10,1 C 9,4 C 8,3 C 35 % 1029,6 hPa 0,0 l/m 0 min 0 min 35 W/m 12,9 km/h (3 Bft) 97,87 %
24.03.2020 18:02 10,1 C 9,4 C 8,3 C 35 % 1029,6 hPa 0,0 l/m 0 min 0 min 35 W/m 12,9 km/h (3 Bft) 100,00 %
24.03.2020 18:04 10,1 C 9,4 C 8,3 C 36 % 1029,6 hPa 0,0 l/m 0 min 0 min 33 W/m 6,4 km/h (2 Bft) 100,00 %
24.03.2020 18:08 10,0 C 8,9 C 8,3 C 37 % 1029,6 hPa 0,0 l/m 0 min 0 min 32 W/m 16,1 km/h (3 Bft) 98,82 %
24.03.2020 18:10 10,0 C 8,9 C 8,3 C 36 % 1029,6 hPa 0,0 l/m 0 min 0 min 30 W/m 16,1 km/h (3 Bft) 100,00 %
24.03.2020 18:12 9,9 C 8,9 C 8,3 C 36 % 1029,7 hPa 0,0 l/m 0 min 0 min 30 W/m 12,9 km/h (3 Bft) 100,00 %
24.03.2020 18:14 9,9 C 8,9 C 8,3 C 36 % 1029,6 hPa 0,0 l/m 0 min 0 min 28 W/m 12,9 km/h (3 Bft) 100,00 %
24.03.2020 18:16 9,9 C 8,9 C 8,3 C 35 % 1029,6 hPa 0,0 l/m 0 min 0 min 27 W/m 19,3 km/h (3 Bft) 100,00 %
24.03.2020 18:18 9,8 C 8,9 C 8,3 C 35 % 1029,6 hPa 0,0 l/m 0 min 0 min 26 W/m 19,3 km/h (3 Bft) 97,87 %
24.03.2020 18:20 9,8 C 8,9 C 8,3 C 35 % 1029,6 hPa 0,0 l/m 0 min 0 min 26 W/m 22,5 km/h (4 Bft) 100,00 %
24.03.2020 18:22 9,8 C 8,9 C 8,3 C 35 % 1029,6 hPa 0,0 l/m 0 min 0 min 25 W/m 22,5 km/h (4 Bft) 97,87 %
24.03.2020 18:24 9,8 C 8,9 C 8,3 C 35 % 1029,7 hPa 0,0 l/m 0 min 0 min 24 W/m 12,9 km/h (3 Bft) 100,00 %
24.03.2020 18:26 9,7 C 8,9 C 7,8 C 35 % 1029,6 hPa 0,0 l/m 0 min 0 min 23 W/m 6,4 km/h (2 Bft) 100,00 %
24.03.2020 18:28 9,7 C 8,3 C 7,8 C 36 % 1029,6 hPa 0,0 l/m 0 min 0 min 21 W/m 12,9 km/h (3 Bft) 100,00 %
24.03.2020 18:30 9,7 C 8,3 C 7,8 C 36 % 1029,5 hPa 0,0 l/m 0 min 0 min 21 W/m 6,4 km/h (2 Bft) 100,00 %
24.03.2020 18:32 9,6 C 8,3 C 7,8 C 37 % 1029,6 hPa 0,0 l/m 0 min 0 min 19 W/m 12,9 km/h (3 Bft) 100,00 %
24.03.2020 18:34 9,6 C 8,3 C 7,8 C 37 % 1029,6 hPa 0,0 l/m 0 min 0 min 19 W/m 6,4 km/h (2 Bft) 100,00 %
24.03.2020 18:36 9,6 C 8,3 C 7,8 C 37 % 1029,6 hPa 0,0 l/m 0 min 0 min 18 W/m 16,1 km/h (3 Bft) 100,00 %
24.03.2020 18:38 9,5 C 8,3 C 7,8 C 37 % 1029,6 hPa 0,0 l/m 0 min 0 min 18 W/m 6,4 km/h (2 Bft) 100,00 %
24.03.2020 18:40 9,4 C 8,3 C 7,8 C 37 % 1029,6 hPa 0,0 l/m 0 min 0 min 18 W/m 12,9 km/h (3 Bft) 100,00 %
24.03.2020 18:42 9,4 C 8,3 C 7,2 C 37 % 1029,6 hPa 0,0 l/m 0 min 0 min 16 W/m 12,9 km/h (3 Bft) 97,87 %
24.03.2020 18:44 9,3 C 8,3 C 7,2 C 36 % 1029,6 hPa 0,0 l/m 0 min 0 min 15 W/m 16,1 km/h (3 Bft) 97,87 %
24.03.2020 18:46 9,3 C 8,3 C 7,2 C 36 % 1029,6 hPa 0,0 l/m 0 min 0 min 13 W/m 0,0 km/h (0 Bft) 97,83 %
24.03.2020 18:48 9,3 C 8,3 C 7,2 C 36 % 1029,6 hPa 0,0 l/m 0 min 0 min 12 W/m 6,4 km/h (2 Bft) 93,62 %
24.03.2020 18:50 9,2 C 7,8 C 7,2 C 36 % 1029,6 hPa 0,0 l/m 0 min 0 min 10 W/m 12,9 km/h (3 Bft) 97,87 %
24.03.2020 18:52 9,2 C 7,8 C 7,2 C 36 % 1029,7 hPa 0,0 l/m 0 min 0 min 9 W/m 6,4 km/h (2 Bft) 95,74 %
24.03.2020 18:54 9,2 C 7,8 C 7,2 C 36 % 1029,7 hPa 0,0 l/m 0 min 0 min 7 W/m 3,2 km/h (1 Bft) 95,74 %
24.03.2020 18:56 9,1 C 7,8 C 7,2 C 36 % 1029,7 hPa 0,0 l/m 0 min 0 min 6 W/m 6,4 km/h (2 Bft) 91,49 %
24.03.2020 18:58 9,1 C 7,8 C 7,2 C 37 % 1029,7 hPa 0,0 l/m 0 min 0 min 5 W/m 22,5 km/h (4 Bft) 95,65 %
24.03.2020 19:00 9,0 C 7,8 C 7,2 C 36 % 1029,7 hPa 0,0 l/m 0 min 0 min 5 W/m 12,9 km/h (3 Bft) 91,49 %
24.03.2020 19:02 8,9 C 7,8 C 7,2 C 37 % 1029,7 hPa 0,0 l/m 0 min 0 min 1 W/m 12,9 km/h (3 Bft) 93,62 %
24.03.2020 19:04 8,9 C 7,8 C 7,2 C 36 % 1029,7 hPa 0,0 l/m 0 min 0 min 0 W/m 16,1 km/h (3 Bft) 95,74 %
24.03.2020 19:06 8,8 C 7,8 C 7,2 C 37 % 1029,7 hPa 0,0 l/m 0 min 0 min 0 W/m 6,4 km/h (2 Bft) 95,74 %
24.03.2020 19:08 8,8 C 7,8 C 6,7 C 37 % 1029,7 hPa 0,0 l/m 0 min 0 min 0 W/m 12,9 km/h (3 Bft) 93,62 %
24.03.2020 19:10 8,8 C 7,2 C 6,7 C 37 % 1029,7 hPa 0,0 l/m 0 min 0 min 0 W/m 12,9 km/h (3 Bft) 97,83 %
24.03.2020 19:12 8,7 C 7,2 C 6,7 C 37 % 1029,7 hPa 0,0 l/m 0 min 0 min 0 W/m 12,9 km/h (3 Bft) 95,74 %
24.03.2020 19:14 8,7 C 7,2 C 6,7 C 37 % 1029,7 hPa 0,0 l/m 0 min 0 min 0 W/m 12,9 km/h (3 Bft) 93,62 %
24.03.2020 19:16 8,7 C 7,2 C 6,7 C 37 % 1029,7 hPa 0,0 l/m 0 min 0 min 0 W/m 3,2 km/h (1 Bft) 95,74 %
24.03.2020 19:18 8,6 C 7,2 C 6,7 C 37 % 1029,7 hPa 0,0 l/m 0 min 0 min 0 W/m 0,0 km/h (0 Bft) 93,62 %
24.03.2020 19:20 8,6 C 7,2 C 6,7 C 37 % 1029,7 hPa 0,0 l/m 0 min 0 min 0 W/m 12,9 km/h (3 Bft) 95,74 %
24.03.2020 19:22 8,6 C 7,2 C 6,7 C 37 % 1029,7 hPa 0,0 l/m 0 min 0 min 0 W/m 3,2 km/h (1 Bft) 95,65 %
24.03.2020 19:24 8,5 C 7,2 C 6,7 C 38 % 1029,7 hPa 0,0 l/m 0 min 0 min 0 W/m 12,9 km/h (3 Bft) 93,62 %
24.03.2020 19:26 8,4 C 7,2 C 6,1 C 38 % 1029,7 hPa 0,0 l/m 0 min 0 min 0 W/m 3,2 km/h (1 Bft) 95,74 %
24.03.2020 19:28 8,4 C 7,2 C 6,1 C 38 % 1029,8 hPa 0,0 l/m 0 min 0 min 0 W/m 3,2 km/h (1 Bft) 95,74 %
24.03.2020 19:30 8,3 C 7,2 C 6,1 C 38 % 1029,8 hPa 0,0 l/m 0 min 0 min 0 W/m 0,0 km/h (0 Bft) 97,87 %
24.03.2020 19:32 8,3 C 6,7 C 6,1 C 38 % 1029,8 hPa 0,0 l/m 0 min 0 min 0 W/m 0,0 km/h (0 Bft) 97,87 %
24.03.2020 19:34 8,3 C 6,7 C 6,1 C 39 % 1029,8 hPa 0,0 l/m 0 min 0 min 0 W/m 0,0 km/h (0 Bft) 97,83 %
24.03.2020 19:36 8,2 C 6,7 C 6,1 C 39 % 1029,9 hPa 0,0 l/m 0 min 0 min 0 W/m 12,9 km/h (3 Bft) 97,87 %
24.03.2020 19:38 8,2 C 6,7 C 6,1 C 38 % 1029,8 hPa 0,0 l/m 0 min 0 min 0 W/m 6,4 km/h (2 Bft) 97,87 %
24.03.2020 19:40 8,1 C 6,7 C 6,1 C 39 % 1029,8 hPa 0,0 l/m 0 min 0 min 0 W/m 3,2 km/h (1 Bft) 100,00 %
24.03.2020 19:42 8,1 C 6,7 C 6,1 C 38 % 1029,9 hPa 0,0 l/m 0 min 0 min 0 W/m 0,0 km/h (0 Bft) 100,00 %
24.03.2020 19:44 8,1 C 6,7 C 6,1 C 39 % 1029,8 hPa 0,0 l/m 0 min 0 min 0 W/m 12,9 km/h (3 Bft) 100,00 %
24.03.2020 19:46 8,0 C 6,7 C 5,6 C 39 % 1029,8 hPa 0,0 l/m 0 min 0 min 0 W/m 6,4 km/h (2 Bft) 100,00 %
24.03.2020 19:48 7,9 C 6,7 C 5,6 C 39 % 1029,8 hPa 0,0 l/m 0 min 0 min 0 W/m 12,9 km/h (3 Bft) 93,62 %
24.03.2020 19:50 7,9 C 6,7 C 5,6 C 39 % 1029,8 hPa 0,0 l/m 0 min 0 min 0 W/m 6,4 km/h (2 Bft) 97,87 %
24.03.2020 19:52 7,9 C 6,7 C 5,6 C 39 % 1029,8 hPa 0,0 l/m 0 min 0 min 0 W/m 12,9 km/h (3 Bft) 93,62 %
24.03.2020 19:54 7,8 C 6,7 C 5,6 C 39 % 1029,8 hPa 0,0 l/m 0 min 0 min 0 W/m 16,1 km/h (3 Bft) 97,87 %
24.03.2020 19:56 7,8 C 6,7 C 5,6 C 39 % 1029,8 hPa 0,0 l/m 0 min 0 min 0 W/m 3,2 km/h (1 Bft) 95,65 %
24.03.2020 19:58 7,8 C 6,7 C 6,1 C 39 % 1029,7 hPa 0,0 l/m 0 min 0 min 0 W/m 16,1 km/h (3 Bft) 97,87 %
24.03.2020 20:00 7,7 C 6,7 C 6,1 C 39 % 1029,7 hPa 0,0 l/m 0 min 0 min 0 W/m 19,3 km/h (3 Bft) 97,87 %
24.03.2020 20:02 7,7 C 6,7 C 6,1 C 38 % 1029,7 hPa 0,0 l/m 0 min 0 min 0 W/m 6,4 km/h (2 Bft) 97,87 %
24.03.2020 20:04 7,7 C 6,7 C 5,6 C 39 % 1029,8 hPa 0,0 l/m 0 min 0 min 0 W/m 3,2 km/h (1 Bft) 97,87 %
24.03.2020 20:06 7,7 C 6,7 C 5,6 C 39 % 1029,7 hPa 0,0 l/m 0 min 0 min 0 W/m 6,4 km/h (2 Bft) 95,74 %
24.03.2020 20:08 7,6 C 6,7 C 5,6 C 39 % 1029,8 hPa 0,0 l/m 0 min 0 min 0 W/m 12,9 km/h (3 Bft) 97,83 %
24.03.2020 20:09 7,6 C 6,7 C 6,1 C 39 % 1029,8 hPa 0,0 l/m 0 min 0 min 0 W/m 6,4 km/h (2 Bft) 93,62 %
24.03.2020 20:12 7,6 C 6,7 C 5,6 C 39 % 1029,8 hPa 0,0 l/m 0 min 0 min 0 W/m 16,1 km/h (3 Bft) 94,92 %
24.03.2020 20:14 7,6 C 6,7 C 5,6 C 39 % 1029,8 hPa 0,0 l/m 0 min 0 min 0 W/m 0,0 km/h (0 Bft) 100,00 %
24.03.2020 20:16 7,6 C 6,7 C 5,6 C 39 % 1029,9 hPa 0,0 l/m 0 min 0 min 0 W/m 6,4 km/h (2 Bft) 97,87 %
24.03.2020 20:18 7,5 C 6,7 C 5,6 C 39 % 1029,8 hPa 0,0 l/m 0 min 0 min 0 W/m 16,1 km/h (3 Bft) 97,87 %
24.03.2020 20:20 7,5 C 6,7 C 5,6 C 39 % 1029,9 hPa 0,0 l/m 0 min 0 min 0 W/m 12,9 km/h (3 Bft) 95,65 %
24.03.2020 20:22 7,4 C 6,7 C 5,6 C 39 % 1029,8 hPa 0,0 l/m 0 min 0 min 0 W/m 6,4 km/h (2 Bft) 97,83 %
24.03.2020 20:24 7,4 C 6,7 C 5,6 C 39 % 1029,8 hPa 0,0 l/m 0 min 0 min 0 W/m 12,9 km/h (3 Bft) 96,61 %
24.03.2020 20:26 7,4 C 6,7 C 5,6 C 39 % 1029,8 hPa 0,0 l/m 0 min 0 min 0 W/m 6,4 km/h (2 Bft) 95,74 %
24.03.2020 20:28 7,4 C 6,7 C 5,6 C 39 % 1029,8 hPa 0,0 l/m 0 min 0 min 0 W/m 12,9 km/h (3 Bft) 97,14 %
24.03.2020 20:30 7,4 C 6,7 C 5,6 C 38 % 1029,8 hPa 0,0 l/m 0 min 0 min 0 W/m 12,9 km/h (3 Bft) 97,87 %
24.03.2020 20:32 7,4 C 6,7 C 5,6 C 38 % 1029,9 hPa 0,0 l/m 0 min 0 min 0 W/m 16,1 km/h (3 Bft) 97,83 %
24.03.2020 20:34 7,3 C 6,7 C 5,6 C 38 % 1029,8 hPa 0,0 l/m 0 min 0 min 0 W/m 12,9 km/h (3 Bft) 97,87 %
24.03.2020 20:36 7,3 C 6,7 C 5,6 C 38 % 1029,8 hPa 0,0 l/m 0 min 0 min 0 W/m 19,3 km/h (3 Bft) 97,87 %
24.03.2020 20:38 7,3 C 6,1 C 5,6 C 39 % 1029,8 hPa 0,0 l/m 0 min 0 min 0 W/m 6,4 km/h (2 Bft) 97,87 %
24.03.2020 20:40 7,3 C 6,1 C 5,6 C 38 % 1029,8 hPa 0,0 l/m 0 min 0 min 0 W/m 19,3 km/h (3 Bft) 89,47 %
24.03.2020 20:45 7,3 C 6,1 C 5,6 C 39 % 1029,8 hPa 0,0 l/m 0 min 0 min 0 W/m 6,4 km/h (2 Bft) 53,51 %
24.03.2020 20:48 7,2 C 6,1 C 5,6 C 39 % 1029,8 hPa 0,0 l/m 0 min 0 min 0 W/m 12,9 km/h (3 Bft) 98,04 %
24.03.2020 20:50 7,2 C 6,1 C 5,6 C 39 % 1029,8 hPa 0,0 l/m 0 min 0 min 0 W/m 12,9 km/h (3 Bft) 95,74 %
24.03.2020 20:52 7,2 C 6,1 C 5,6 C 39 % 1029,7 hPa 0,0 l/m 0 min 0 min 0 W/m 16,1 km/h (3 Bft) 95,74 %
24.03.2020 20:54 7,2 C 6,1 C 5,6 C 39 % 1029,7 hPa 0,0 l/m 0 min 0 min 0 W/m 6,4 km/h (2 Bft) 97,87 %
24.03.2020 20:56 7,2 C 6,1 C 5,6 C 39 % 1029,7 hPa 0,0 l/m 0 min 0 min 0 W/m 6,4 km/h (2 Bft) 91,49 %
24.03.2020 20:58 7,1 C 6,1 C 5,6 C 39 % 1029,8 hPa 0,0 l/m 0 min 0 min 0 W/m 6,4 km/h (2 Bft) 93,48 %
24.03.2020 21:00 7,1 C 6,1 C 5,6 C 39 % 1029,8 hPa 0,0 l/m 0 min 0 min 0 W/m 12,9 km/h (3 Bft) 95,74 %
24.03.2020 21:02 7,1 C 6,1 C 5,0 C 39 % 1029,8 hPa 0,0 l/m 0 min 0 min 0 W/m 6,4 km/h (2 Bft) 95,74 %
24.03.2020 21:04 7,1 C 6,1 C 5,0 C 39 % 1029,8 hPa 0,0 l/m 0 min 0 min 0 W/m 3,2 km/h (1 Bft) 97,87 %
24.03.2020 21:06 7,1 C 6,1 C 5,0 C 39 % 1029,8 hPa 0,0 l/m 0 min 0 min 0 W/m 0,0 km/h (0 Bft) 97,87 %
24.03.2020 21:08 7,0 C 6,1 C 5,0 C 39 % 1029,8 hPa 0,0 l/m 0 min 0 min 0 W/m 0,0 km/h (0 Bft) 95,74 %
24.03.2020 21:10 7,0 C 6,1 C 5,0 C 39 % 1029,9 hPa 0,0 l/m 0 min 0 min 0 W/m 0,0 km/h (0 Bft) 97,83 %
24.03.2020 21:12 6,9 C 6,1 C 5,0 C 39 % 1029,9 hPa 0,0 l/m 0 min 0 min 0 W/m 0,0 km/h (0 Bft) 95,74 %
24.03.2020 21:14 6,9 C 5,6 C 5,0 C 39 % 1029,9 hPa 0,0 l/m 0 min 0 min 0 W/m 0,0 km/h (0 Bft) 97,87 %
24.03.2020 21:16 6,9 C 5,6 C 5,0 C 40 % 1029,9 hPa 0,0 l/m 0 min 0 min 0 W/m 0,0 km/h (0 Bft) 97,87 %
24.03.2020 21:18 6,8 C 5,6 C 5,0 C 40 % 1030,0 hPa 0,0 l/m 0 min 0 min 0 W/m 0,0 km/h (0 Bft) 97,87 %
24.03.2020 21:20 6,8 C 5,6 C 5,0 C 40 % 1029,9 hPa 0,0 l/m 0 min 0 min 0 W/m 3,2 km/h (1 Bft) 97,87 %
24.03.2020 21:22 6,7 C 5,6 C 5,0 C 40 % 1029,9 hPa 0,0 l/m 0 min 0 min 0 W/m 9,7 km/h (2 Bft) 97,83 %
24.03.2020 21:24 6,7 C 5,6 C 5,0 C 39 % 1029,9 hPa 0,0 l/m 0 min 0 min 0 W/m 6,4 km/h (2 Bft) 97,87 %
24.03.2020 21:26 6,7 C 5,6 C 5,0 C 39 % 1029,9 hPa 0,0 l/m 0 min 0 min 0 W/m 6,4 km/h (2 Bft) 97,87 %
24.03.2020 21:28 6,7 C 5,6 C 5,0 C 39 % 1029,9 hPa 0,0 l/m 0 min 0 min 0 W/m 0,0 km/h (0 Bft) 97,87 %
24.03.2020 21:30 6,7 C 5,6 C 4,4 C 39 % 1029,9 hPa 0,0 l/m 0 min 0 min 0 W/m 0,0 km/h (0 Bft) 95,74 %
24.03.2020 21:32 6,6 C 5,6 C 4,4 C 39 % 1029,9 hPa 0,0 l/m 0 min 0 min 0 W/m 0,0 km/h (0 Bft) 97,87 %
24.03.2020 21:34 6,6 C 5,6 C 4,4 C 39 % 1029,9 hPa 0,0 l/m 0 min 0 min 0 W/m 0,0 km/h (0 Bft) 100,00 %
24.03.2020 21:36 6,6 C 5,6 C 4,4 C 40 % 1029,9 hPa 0,0 l/m 0 min 0 min 0 W/m 0,0 km/h (0 Bft) 100,00 %
24.03.2020 21:38 6,6 C 5,6 C 4,4 C 40 % 1030,0 hPa 0,0 l/m 0 min 0 min 0 W/m 3,2 km/h (1 Bft) 97,87 %
24.03.2020 21:40 6,5 C 5,6 C 4,4 C 40 % 1030,0 hPa 0,0 l/m 0 min 0 min 0 W/m 12,9 km/h (3 Bft) 100,00 %
24.03.2020 21:42 6,5 C 5,6 C 4,4 C 40 % 1030,1 hPa 0,0 l/m 0 min 0 min 0 W/m 3,2 km/h (1 Bft) 100,00 %
24.03.2020 21:44 6,4 C 5,6 C 4,4 C 41 % 1030,0 hPa 0,0 l/m 0 min 0 min 0 W/m 6,4 km/h (2 Bft) 100,00 %
24.03.2020 21:46 6,4 C 5,0 C 4,4 C 41 % 1030,0 hPa 0,0 l/m 0 min 0 min 0 W/m 6,4 km/h (2 Bft) 97,87 %
24.03.2020 21:48 6,3 C 5,0 C 4,4 C 41 % 1030,0 hPa 0,0 l/m 0 min 0 min 0 W/m 6,4 km/h (2 Bft) 95,74 %
24.03.2020 21:50 6,3 C 5,0 C 4,4 C 41 % 1029,9 hPa 0,0 l/m 0 min 0 min 0 W/m 6,4 km/h (2 Bft) 97,87 %
24.03.2020 21:52 6,3 C 5,0 C 4,4 C 41 % 1029,9 hPa 0,0 l/m 0 min 0 min 0 W/m 16,1 km/h (3 Bft) 95,74 %
24.03.2020 21:54 6,2 C 5,0 C 4,4 C 40 % 1029,9 hPa 0,0 l/m 0 min 0 min 0 W/m 6,4 km/h (2 Bft) 97,87 %
24.03.2020 21:56 6,2 C 5,6 C 4,4 C 40 % 1029,9 hPa 0,0 l/m 0 min 0 min 0 W/m 12,9 km/h (3 Bft) 97,83 %
24.03.2020 21:58 6,2 C 5,6 C 4,4 C 40 % 1029,9 hPa 0,0 l/m 0 min 0 min 0 W/m 12,9 km/h (3 Bft) 55,56 %
24.03.2020 22:00 6,2 C 5,6 C 4,4 C 40 % 1029,9 hPa 0,0 l/m 0 min 0 min 0 W/m 16,1 km/h (3 Bft) 97,87 %
24.03.2020 22:02 6,2 C 5,6 C 4,4 C 40 % 1030,0 hPa 0,0 l/m 0 min 0 min 0 W/m 6,4 km/h (2 Bft) 97,87 %
24.03.2020 22:04 6,2 C 5,6 C 4,4 C 40 % 1030,0 hPa 0,0 l/m 0 min 0 min 0 W/m 6,4 km/h (2 Bft) 97,87 %
24.03.2020 22:06 6,2 C 5,0 C 4,4 C 40 % 1030,0 hPa 0,0 l/m 0 min 0 min 0 W/m 6,4 km/h (2 Bft) 95,74 %
24.03.2020 22:08 6,2 C 5,0 C 4,4 C 40 % 1030,0 hPa 0,0 l/m 0 min 0 min 0 W/m 16,1 km/h (3 Bft) 97,83 %
24.03.2020 22:10 6,2 C 5,6 C 4,4 C 40 % 1029,9 hPa 0,0 l/m 0 min 0 min 0 W/m 12,9 km/h (3 Bft) 95,74 %
24.03.2020 22:12 6,1 C 5,6 C 4,4 C 40 % 1029,9 hPa 0,0 l/m 0 min 0 min 0 W/m 0,0 km/h (0 Bft) 95,74 %
24.03.2020 22:14 6,1 C 5,0 C 4,4 C 40 % 1029,9 hPa 0,0 l/m 0 min 0 min 0 W/m 6,4 km/h (2 Bft) 97,87 %
24.03.2020 22:16 6,1 C 5,0 C 4,4 C 40 % 1030,0 hPa 0,0 l/m 0 min 0 min 0 W/m 6,4 km/h (2 Bft) 97,87 %
24.03.2020 22:18 6,1 C 5,0 C 4,4 C 40 % 1029,9 hPa 0,0 l/m 0 min 0 min 0 W/m 0,0 km/h (0 Bft) 97,87 %
24.03.2020 22:20 6,1 C 5,0 C 4,4 C 41 % 1030,0 hPa 0,0 l/m 0 min 0 min 0 W/m 3,2 km/h (1 Bft) 97,83 %
24.03.2020 22:22 6,1 C 5,0 C 4,4 C 41 % 1029,9 hPa 0,0 l/m 0 min 0 min 0 W/m 6,4 km/h (2 Bft) 95,74 %
24.03.2020 22:24 6,1 C 5,0 C 4,4 C 41 % 1029,9 hPa 0,0 l/m 0 min 0 min 0 W/m 12,9 km/h (3 Bft) 95,74 %
24.03.2020 22:26 6,1 C 5,0 C 4,4 C 41 % 1029,8 hPa 0,0 l/m 0 min 0 min 0 W/m 3,2 km/h (1 Bft) 97,87 %
24.03.2020 22:28 6,0 C 5,0 C 3,9 C 42 % 1029,8 hPa 0,0 l/m 0 min 0 min 0 W/m 3,2 km/h (1 Bft) 97,87 %
24.03.2020 22:30 5,9 C 5,0 C 3,9 C 42 % 1029,9 hPa 0,0 l/m 0 min 0 min 0 W/m 6,4 km/h (2 Bft) 97,87 %
24.03.2020 22:32 5,9 C 4,4 C 3,9 C 42 % 1029,8 hPa 0,0 l/m 0 min 0 min 0 W/m 3,2 km/h (1 Bft) 97,83 %
24.03.2020 22:34 5,9 C 4,4 C 3,9 C 43 % 1029,8 hPa 0,0 l/m 0 min 0 min 0 W/m 3,2 km/h (1 Bft) 97,87 %
24.03.2020 22:36 5,8 C 4,4 C 3,9 C 43 % 1029,8 hPa 0,0 l/m 0 min 0 min 0 W/m 0,0 km/h (0 Bft) 97,87 %
24.03.2020 22:38 5,8 C 4,4 C 3,3 C 43 % 1029,8 hPa 0,0 l/m 0 min 0 min 0 W/m 3,2 km/h (1 Bft) 97,87 %
24.03.2020 22:40 5,7 C 4,4 C 3,3 C 43 % 1029,9 hPa 0,0 l/m 0 min 0 min 0 W/m 3,2 km/h (1 Bft) 97,87 %
24.03.2020 22:42 5,6 C 4,4 C 3,3 C 43 % 1029,8 hPa 0,0 l/m 0 min 0 min 0 W/m 3,2 km/h (1 Bft) 100,00 %
24.03.2020 22:44 5,6 C 3,9 C 3,3 C 44 % 1029,8 hPa 0,0 l/m 0 min 0 min 0 W/m 0,0 km/h (0 Bft) 100,00 %
24.03.2020 22:46 5,5 C 3,9 C 3,3 C 44 % 1029,8 hPa 0,0 l/m 0 min 0 min 0 W/m 0,0 km/h (0 Bft) 97,87 %
24.03.2020 22:48 5,4 C 3,9 C 3,3 C 44 % 1029,8 hPa 0,0 l/m 0 min 0 min 0 W/m 0,0 km/h (0 Bft) 100,00 %
24.03.2020 22:50 5,4 C 3,9 C 2,8 C 45 % 1029,7 hPa 0,0 l/m 0 min 0 min 0 W/m 0,0 km/h (0 Bft) 100,00 %
24.03.2020 22:52 5,3 C 3,9 C 2,8 C 45 % 1029,7 hPa 0,0 l/m 0 min 0 min 0 W/m 0,0 km/h (0 Bft) 97,87 %
24.03.2020 22:54 5,3 C 3,9 C 2,8 C 45 % 1029,7 hPa 0,0 l/m 0 min 0 min 0 W/m 0,0 km/h (0 Bft) 100,00 %
24.03.2020 22:56 5,3 C 3,3 C 2,8 C 45 % 1029,7 hPa 0,0 l/m 0 min 0 min 0 W/m 0,0 km/h (0 Bft) 95,74 %
24.03.2020 22:58 5,2 C 3,9 C 2,8 C 45 % 1029,6 hPa 0,0 l/m 0 min 0 min 0 W/m 0,0 km/h (0 Bft) 100,00 %
24.03.2020 23:00 5,1 C 3,9 C 2,8 C 46 % 1029,6 hPa 0,0 l/m 0 min 0 min 0 W/m 0,0 km/h (0 Bft) 100,00 %
24.03.2020 23:02 5,1 C 3,9 C 2,8 C 45 % 1029,6 hPa 0,0 l/m 0 min 0 min 0 W/m 0,0 km/h (0 Bft) 97,87 %
24.03.2020 23:04 5,0 C 3,9 C 2,8 C 46 % 1029,7 hPa 0,0 l/m 0 min 0 min 0 W/m 0,0 km/h (0 Bft) 97,87 %
24.03.2020 23:06 4,9 C 3,9 C 2,8 C 46 % 1029,6 hPa 0,0 l/m 0 min 0 min 0 W/m 6,4 km/h (2 Bft) 100,00 %
24.03.2020 23:08 4,9 C 3,9 C 2,8 C 46 % 1029,7 hPa 0,0 l/m 0 min 0 min 0 W/m 0,0 km/h (0 Bft) 100,00 %
24.03.2020 23:10 4,8 C 3,9 C 2,8 C 46 % 1029,6 hPa 0,0 l/m 0 min 0 min 0 W/m 0,0 km/h (0 Bft) 100,00 %
24.03.2020 23:12 4,8 C 3,9 C 2,8 C 46 % 1029,6 hPa 0,0 l/m 0 min 0 min 0 W/m 0,0 km/h (0 Bft) 100,00 %
24.03.2020 23:14 4,8 C 3,3 C 2,8 C 47 % 1029,6 hPa 0,0 l/m 0 min 0 min 0 W/m 0,0 km/h (0 Bft) 95,74 %
24.03.2020 23:16 4,7 C 3,3 C 2,8 C 47 % 1029,6 hPa 0,0 l/m 0 min 0 min 0 W/m 0,0 km/h (0 Bft) 97,87 %
24.03.2020 23:18 4,7 C 3,3 C 2,8 C 47 % 1029,7 hPa 0,0 l/m 0 min 0 min 0 W/m 0,0 km/h (0 Bft) 95,65 %
24.03.2020 23:20 4,7 C 3,3 C 2,8 C 47 % 1029,7 hPa 0,0 l/m 0 min 0 min 0 W/m 0,0 km/h (0 Bft) 97,87 %
24.03.2020 23:22 4,6 C 3,9 C 2,8 C 47 % 1029,6 hPa 0,0 l/m 0 min 0 min 0 W/m 0,0 km/h (0 Bft) 97,87 %
24.03.2020 23:24 4,6 C 3,9 C 2,8 C 47 % 1029,6 hPa 0,0 l/m 0 min 0 min 0 W/m 0,0 km/h (0 Bft) 97,87 %
24.03.2020 23:26 4,6 C 3,9 C 2,8 C 47 % 1029,7 hPa 0,0 l/m 0 min 0 min 0 W/m 0,0 km/h (0 Bft) 95,74 %
24.03.2020 23:28 4,6 C 3,9 C 2,8 C 47 % 1029,7 hPa 0,0 l/m 0 min 0 min 0 W/m 3,2 km/h (1 Bft) 97,87 %
24.03.2020 23:30 4,6 C 3,9 C 3,3 C 46 % 1029,7 hPa 0,0 l/m 0 min 0 min 0 W/m 6,4 km/h (2 Bft) 97,83 %
24.03.2020 23:32 4,6 C 3,9 C 3,3 C 47 % 1029,7 hPa 0,0 l/m 0 min 0 min 0 W/m 16,1 km/h (3 Bft) 97,87 %
24.03.2020 23:34 4,6 C 3,9 C 3,3 C 46 % 1029,6 hPa 0,0 l/m 0 min 0 min 0 W/m 6,4 km/h (2 Bft) 97,87 %
24.03.2020 23:36 4,6 C 3,9 C 2,8 C 47 % 1029,6 hPa 0,0 l/m 0 min 0 min 0 W/m 0,0 km/h (0 Bft) 95,74 %
24.03.2020 23:38 4,6 C 3,3 C 2,8 C 47 % 1029,6 hPa 0,0 l/m 0 min 0 min 0 W/m 0,0 km/h (0 Bft) 95,74 %
24.03.2020 23:40 4,6 C 3,3 C 2,8 C 48 % 1029,6 hPa 0,0 l/m 0 min 0 min 0 W/m 0,0 km/h (0 Bft) 93,48 %
24.03.2020 23:42 4,6 C 3,3 C 2,8 C 48 % 1029,6 hPa 0,0 l/m 0 min 0 min 0 W/m 0,0 km/h (0 Bft) 97,87 %
24.03.2020 23:44 4,5 C 3,3 C 2,8 C 48 % 1029,6 hPa 0,0 l/m 0 min 0 min 0 W/m 0,0 km/h (0 Bft) 95,74 %
24.03.2020 23:46 4,5 C 3,3 C 2,8 C 48 % 1029,6 hPa 0,0 l/m 0 min 0 min 0 W/m 0,0 km/h (0 Bft) 97,87 %
24.03.2020 23:48 4,4 C 3,3 C 2,8 C 48 % 1029,6 hPa 0,0 l/m 0 min 0 min 0 W/m 0,0 km/h (0 Bft) 97,87 %
24.03.2020 23:50 4,4 C 3,3 C 2,8 C 49 % 1029,6 hPa 0,0 l/m 0 min 0 min 0 W/m 0,0 km/h (0 Bft) 97,87 %
24.03.2020 23:52 4,3 C 3,3 C 2,2 C 49 % 1029,6 hPa 0,0 l/m 0 min 0 min 0 W/m 0,0 km/h (0 Bft) 97,83 %
24.03.2020 23:54 4,3 C 3,3 C 2,2 C 49 % 1029,6 hPa 0,0 l/m 0 min 0 min 0 W/m 0,0 km/h (0 Bft) 97,87 %
24.03.2020 23:56 4,3 C 3,3 C 2,2 C 49 % 1029,5 hPa 0,0 l/m 0 min 0 min 0 W/m 0,0 km/h (0 Bft) 97,87 %
24.03.2020 23:58 4,3 C 3,3 C 2,2 C 49 % 1029,5 hPa 0,0 l/m 0 min 0 min 0 W/m 0,0 km/h (0 Bft) 97,87 %
_ Min-Zeit 06:18 04:20 04:12 15:44 16:56 - - - - 00:00 17:52
Minimum _ 1,2 C 0,6 C 0,0 C 30 % 1029,3 hPa - - - - 0,0 km/h (0 Bft) 45,95 %
_ Max-Zeit 15:42 15:06 16:06 06:08 09:44 00:00 12:08 00:00 12:34 08:58 00:02
Maximum _ 11,8 C 15,6 C 17,2 C 60 % 1033,3 hPa 0,0 l/m 4 min 0 min 755 W/m 48,3 km/h
O-SO (6 Bft)
100,00 %
Durchschnitt _ 6,1 C 6,7 C 5,4 C 45 % 1031,4 hPa #0,0 l/m #8:20 h #0 min. 406 W/m 12,9 km/h (3 Bft) 96,93 %
© 2020 W. Hausmann